Data from ESP8266 test

Home
 
ID
int : 20
DEVICE_ID
int : 11
TEMP_IN
int : 11
TEMP_OUT
int : 11
HUMID
int : 11
ATMOS
int : 11
TIME
timestamp : 19
241  199  65  1012  2018-08-30 13:30:32 
231  201  72  1012  2018-08-30 13:44:58 
211  201  74  1011  2018-08-30 13:59:24 
225  202  74  1012  2018-08-30 14:13:50 
204  203  74  1012  2018-08-30 14:28:16 
209  203  74  1012  2018-08-30 14:42:43 
232  195  73  1012  2018-08-30 14:57:09 
233  195  72  1011  2018-08-30 15:11:35 
221  195  72  1012  2018-08-30 15:26:01 
10  221  194  71  1012  2018-08-30 15:40:28 
11  227  194  71  1012  2018-08-30 15:54:54 
12  228  196  71  1012  2018-08-30 16:09:26 
13  216  173  75  1012  2018-08-30 17:32:39 
14  213  168  75  1012  2018-08-30 17:47:05 
15  207  167  76  1012  2018-08-30 18:01:31 
16  217  159  76  1012  2018-08-30 18:15:58 
17  212  156  76  1012  2018-08-30 18:30:24 
18  213  157  76  1012  2018-08-30 18:44:50 
19  209  152  76  1013  2018-08-30 18:59:17 
20  213  153  77  1013  2018-08-30 19:13:43 
21  204  148  77  1013  2018-08-30 19:28:09 
22  200  144  100  1013  2018-08-30 19:42:36 
23  208  144  77  1014  2018-08-30 19:57:02 
24  209  138  100  1014  2018-08-30 20:11:28 
25  194  136  100  1013  2018-08-30 20:25:54 
26  193  132  100  1013  2018-08-30 20:40:21 
27  199  130  101  1014  2018-08-30 20:54:47 
28  201  129  101  1013  2018-08-30 21:09:13 
29  193  124  101  1013  2018-08-30 21:23:40 
30  197  127  101  1013  2018-08-30 21:38:06 
31  192  125  102  1013  2018-08-30 21:52:32 
32  187  121  102  1013  2018-08-30 22:06:59 
33  188  124  102  1013  2018-08-30 22:21:25 
34  188  121  102  1013  2018-08-30 22:35:52 
35  189  122  102  1013  2018-08-30 22:50:18 
36  189  114  102  1014  2018-08-30 23:04:44 
37  182  115  103  1013  2018-08-30 23:19:11 
38  181  113  103  1013  2018-08-30 23:33:37 
39  179  111  102  1014  2018-08-30 23:48:03 
40  184  114  102  1013  2018-08-31 00:02:30 
41  185  108  103  1013  2018-08-31 00:16:56 
42  174  109  103  1013  2018-08-31 00:31:22 
43  177  108  103  1012  2018-08-31 00:45:49 
44  178  105  103  1013  2018-08-31 01:00:15 
45  174  103  103  1013  2018-08-31 01:14:42 
46  173  100  103  1013  2018-08-31 01:29:08 
47  175  107  103  1013  2018-08-31 01:43:34 
48  173  110  103  1014  2018-08-31 01:58:01 
49  170  113  103  1013  2018-08-31 02:12:27 
50  182  115  103  1014  2018-08-31 02:26:53 
51  173  117  103  1014  2018-08-31 02:41:20 
52  171  116  104  1014  2018-08-31 02:55:46 
53  169  115  104  1014  2018-08-31 03:10:13 
54  171  118  104  1014  2018-08-31 03:24:39 
55  176  118  104  1014  2018-08-31 03:39:06 
56  170  120  104  1014  2018-08-31 03:53:32 
57  175  119  104  1014  2018-08-31 04:07:59 
58  168  123  104  1014  2018-08-31 04:22:25 
59  187  122  104  1014  2018-08-31 04:36:52 
60  170  120  104  1014  2018-08-31 04:51:18 
61  170  118  105  1015  2018-08-31 05:05:44 
62  169  121  105  1015  2018-08-31 05:20:11 
63  168  120  105  1015  2018-08-31 05:34:37 
64  168  121  105  1014  2018-08-31 05:49:04 
65  170  121  105  1016  2018-08-31 06:03:30 
66  172  122  105  1015  2018-08-31 06:17:57 
67  171  122  105  1015  2018-08-31 06:32:23 
68  175  124  105  1015  2018-08-31 06:46:50 
69  182  118  106  1017  2018-08-31 07:01:16 
70  186  124  106  1016  2018-08-31 07:15:42 
71  181  126  106  1016  2018-08-31 07:30:09 
72  186  135  107  1016  2018-08-31 07:44:35 
73  174  130  107  1016  2018-08-31 07:59:02 
74  179  135  111  1016  2018-08-31 08:13:28 
75  183  134  110  1016  2018-08-31 08:27:54 
76  182  140  110  1016  2018-08-31 08:42:21 
77  180  145  111  1016  2018-08-31 08:56:47 
78  180  153  111  1017  2018-08-31 09:11:14 
79  186  152  110  1016  2018-08-31 09:25:40 
80  184  153  110  1017  2018-08-31 09:40:08 
81  201  180  103  1017  2018-08-31 11:35:34 
82  211  175  102  1017  2018-08-31 11:50:00 
83  199  176  102  1017  2018-08-31 12:04:27 
84  218  191  102  1017  2018-08-31 12:18:53 
85  207  198  102  1017  2018-08-31 12:33:20 
86  208  196  100  1016  2018-08-31 12:47:46 
87  208  199  100  1015  2018-08-31 13:02:12 
88  223  194  74  1016  2018-08-31 15:07:04 
89  222  189  73  1016  2018-08-31 15:21:30 
90  214  186  73  1016  2018-08-31 15:35:56 
91  227  185  74  1017  2018-08-31 15:50:23 
92  224  178  73  1017  2018-08-31 16:04:49 
93  224  177  74  1017  2018-08-31 16:19:15 
94  218  182  74  1017  2018-08-31 16:33:41 
95  209  172  74  1016  2018-08-31 16:48:08 
96  209  168  75  1016  2018-08-31 17:02:34 
97  214  167  75  1016  2018-08-31 17:17:00 
98  210  167  76  1016  2018-08-31 17:31:27 
99  210  162  75  1016  2018-08-31 17:45:53 
100  209  159  76  1016  2018-08-31 18:00:19 
101  215  158  76  1016  2018-08-31 18:14:45 
102  214  155  76  1016  2018-08-31 18:29:12 
103  213  151  76  1016  2018-08-31 18:43:38 
104  221  152  76  1017  2018-08-31 18:58:04 
105  225  152  76  1018  2018-08-31 19:12:31 
106  236  149  76  1017  2018-08-31 19:26:57 
107  239  148  75  1017  2018-08-31 19:41:24 
108  236  150  74  1017  2018-08-31 19:55:50 
109  240  148  74  1018  2018-08-31 20:10:16 
110  242  150  73  1016  2018-08-31 20:24:43 
111  241  147  73  1017  2018-08-31 20:39:09 
112  236  146  72  1017  2018-08-31 20:53:35 
113  239  147  73  1018  2018-08-31 21:08:02 
114  247  145  73  1017  2018-08-31 21:22:28 
115  245  145  73  1017  2018-08-31 21:36:54 
116  245  143  73  1017  2018-08-31 21:51:21 
117  248  141  72  1017  2018-08-31 22:05:47 
118  245  144  72  1017  2018-08-31 22:20:13 
119  246  141  72  1017  2018-08-31 22:34:40 
120  239  141  71  1017  2018-08-31 22:49:06 
121  235  142  71  1017  2018-08-31 23:03:32 
122  230  145  72  1018  2018-08-31 23:17:59 
123  213  138  73  1017  2018-08-31 23:32:25 
124  206  140  75  1017  2018-08-31 23:46:51 
125  201  137  76  1018  2018-09-01 00:01:17 
126  200  130  77  1017  2018-09-01 00:15:44 
127  195  130  100  1017  2018-09-01 00:30:10 
128  188  123  100  1017  2018-09-01 00:44:36 
129  193  122  101  1017  2018-09-01 00:59:03 
130  189  121  102  1018  2018-09-01 01:13:29 
131  182  115  102  1017  2018-09-01 01:27:56 
132  183  116  103  1017  2018-09-01 01:42:23 
133  189  115  104  1017  2018-09-01 03:23:24 
134  175  114  104  1016  2018-09-01 03:37:51 
135  174  113  104  1016  2018-09-01 03:52:17 
136  172  117  104  1017  2018-09-01 04:06:43 
137  176  115  104  1017  2018-09-01 04:21:10 
138  168  112  104  1017  2018-09-01 04:35:36 
139  176  112  104  1016  2018-09-01 04:50:03 
140  173  110  104  1017  2018-09-01 05:04:29 
141  171  110  105  1016  2018-09-01 05:18:55 
142  167  109  105  1015  2018-09-01 05:33:22 
143  174  109  105  1016  2018-09-01 05:47:48 
144  165  102  105  1017  2018-09-01 06:02:15 
145  160  100  105  1016  2018-09-01 06:16:41 
146  164  102  105  1016  2018-09-01 06:31:07 
147  169  99  105  1017  2018-09-01 06:45:34 
148  167  101  105  1016  2018-09-01 07:00:00 
149  165  104  105  1016  2018-09-01 07:14:26 
150  168  106  105  1017  2018-09-01 07:28:53 
151  157  107  106  1017  2018-09-01 07:43:19 
152  160  112  106  1017  2018-09-01 07:57:45 
153  174  119  106  1017  2018-09-01 08:12:12 
154  160  132  106  1017  2018-09-01 08:26:38 
155  175  138  106  1017  2018-09-01 08:41:04 
156  161  143  106  1018  2018-09-01 08:55:31 
157  169  145  106  1017  2018-09-01 09:09:58 
158  162  153  106  1017  2018-09-01 09:24:24 
159  170  155  107  1017  2018-09-01 09:38:51 
160  166  164  110  1017  2018-09-01 09:53:17 
161  190  164  107  1017  2018-09-01 10:07:43 
162  188  168  107  1017  2018-09-01 10:22:10 
163  178  171  106  1016  2018-09-01 10:43:47 
164  177  172  106  1016  2018-09-01 10:58:13 
165  200  174  106  1017  2018-09-01 11:12:40 
166  178  172  105  1017  2018-09-01 11:27:06 
167  179  175  104  1017  2018-09-01 11:41:33 
168  196  187  104  1017  2018-09-01 11:55:59 
169  183  181  104  1016  2018-09-01 12:10:26 
170  190  182  103  1016  2018-09-01 12:24:52 
171  183  180  103  1016  2018-09-01 12:39:19 
172  184  186  102  1016  2018-09-01 12:53:45 
173  193  194  102  1015  2018-09-01 13:08:12 
174  202  187  101  1015  2018-09-01 13:22:38 
175  190  193  101  1015  2018-09-01 13:37:05 
176  193  181  77  1015  2018-09-01 13:51:31 
177  211  188  77  1015  2018-09-01 14:05:57 
178  201  182  77  1015  2018-09-01 14:20:23 
179  196  193  77  1015  2018-09-01 14:34:50 
180  200  192  76  1014  2018-09-01 14:49:16 
181  198  198  75  1014  2018-09-01 15:03:42 
182  199  186  74  1014  2018-09-01 15:18:08 
183  212  182  73  1015  2018-09-01 15:32:34 
184  209  192  74  1015  2018-09-01 15:47:00 
185  207  171  75  1015  2018-09-01 16:01:27 
186  199  175  76  1014  2018-09-01 16:15:53 
187  197  170  76  1014  2018-09-01 16:30:19 
188  197  170  76  1014  2018-09-01 16:44:47 
189  198  173  76  1014  2018-09-01 16:59:13 
190  206  168  75  1014  2018-09-01 17:13:39 
191  199  165  75  1014  2018-09-01 17:28:05 
192  198  168  75  1014  2018-09-01 17:42:31 
193  197  158  75  1015  2018-09-01 17:56:57 
194  202  150  76  1014  2018-09-01 18:11:24 
195  206  148  76  1014  2018-09-01 18:25:50 
196  207  147  76  1014  2018-09-01 18:40:16 
197  207  145  76  1015  2018-09-01 18:54:43 
198  205  143  76  1015  2018-09-01 19:09:09 
199  202  138  76  1014  2018-09-01 19:23:35 
200  200  137  76  1014  2018-09-01 19:38:02 
201  200  137  76  1014  2018-09-01 19:52:28 
202  200  133  76  1014  2018-09-01 20:06:54 
203  206  129  76  1014  2018-09-01 20:21:20 
204  195  125  76  1015  2018-09-01 20:35:46 
205  191  131  77  1014  2018-09-01 20:50:12 
206  194  126  77  1015  2018-09-01 21:04:38 
207  186  125  100  1015  2018-09-01 21:19:04 
208  184  120  100  1015  2018-09-01 21:33:31 
209  180  124  101  1015  2018-09-01 21:47:57 
210  192  123  101  1015  2018-09-01 22:02:24 
211  187  119  101  1014  2018-09-01 22:16:50 
212  182  121  101  1014  2018-09-01 22:31:16 
213  184  118  102  1014  2018-09-01 22:45:43 
214  182  112  102  1014  2018-09-01 23:00:09 
215  180  110  102  1014  2018-09-01 23:14:36 
216  176  114  102  1014  2018-09-01 23:29:02 
217  180  112  103  1013  2018-09-01 23:43:28 
218  169  114  103  1013  2018-09-01 23:57:55 
219  178  113  103  1013  2018-09-02 00:12:21 
220  182  114  103  1014  2018-09-02 00:26:48 
221  168  107  103  1014  2018-09-02 00:41:14 
222  171  111  103  1014  2018-09-02 00:55:41 
223  166  110  103  1014  2018-09-02 01:10:08 
224  167  110  103  1013  2018-09-02 01:24:34 
225  166  104  103  1014  2018-09-02 01:39:01 
226  164  99  103  1014  2018-09-02 01:53:28 
227  172  99  103  1014  2018-09-02 02:07:54 
228  178  96  103  1013  2018-09-02 02:22:19 
229  166  99  103  1014  2018-09-02 02:36:45 
230  167  94  103  1013  2018-09-02 02:51:11 
231  167  98  103  1013  2018-09-02 03:05:37 
232  158  97  104  1013  2018-09-02 03:20:03 
233  162  91  104  1013  2018-09-02 03:34:29 
234  158  91  104  1012  2018-09-02 03:48:55 
235  159  96  104  1013  2018-09-02 04:03:21 
236  156  88  104  1013  2018-09-02 04:17:47 
237  170  90  104  1012  2018-09-02 04:32:13 
238  170  88  104  1013  2018-09-02 04:46:38 
239  153  91  104  1013  2018-09-02 05:01:04 
240  154  92  104  1013  2018-09-02 05:15:30 
241  167  88  104  1013  2018-09-02 05:29:56 
242  158  91  104  1013  2018-09-02 05:44:22 
243  151  87  104  1013  2018-09-02 05:58:48 
244  150  90  104  1013  2018-09-02 06:13:14 
245  153  90  104  1013  2018-09-02 06:27:40 
246  155  96  104  1014  2018-09-02 06:42:06 
247  146  114  106  1014  2018-09-02 06:56:32 
248  166  107  106  1015  2018-09-02 07:10:59 
249  148  110  107  1015  2018-09-02 07:25:25 
250  153  110  107  1015  2018-09-02 07:39:52 
251  168  111  110  1015  2018-09-02 07:54:18 
252  145  115  110  1015  2018-09-02 08:08:44 
253  151  118  110  1016  2018-09-02 08:23:11 
254  166  117  110  1015  2018-09-02 08:37:37 
255  147  120  110  1015  2018-09-02 08:52:03 
256  157  120  110  1016  2018-09-02 09:06:30 
257  157  127  110  1016  2018-09-02 09:20:57 
258  154  134  107  1015  2018-09-02 09:35:23 
259  152  139  107  1015  2018-09-02 09:49:50 
260  155  137  107  1015  2018-09-02 10:04:16 
261  159  142  107  1015  2018-09-02 10:18:43 
262  158  147  107  1015  2018-09-02 10:33:09 
263  166  159  100  1016  2018-09-02 10:48:19 
264  168  161  77  1015  2018-09-02 11:02:46 
265  179  167  76  1015  2018-09-02 11:17:12 
266  170  165  75  1015  2018-09-02 11:31:38 
267  172  171  75  1015  2018-09-02 11:46:04 
268  185  173  74  1015  2018-09-02 12:00:30 
269  188  174  74  1015  2018-09-02 12:14:56 
270  196  179  74  1014  2018-09-02 12:29:23 
271  191  180  73  1015  2018-09-02 12:43:49 
272  205  188  71  1015  2018-09-02 12:58:15 
273  184  193  70  1015  2018-09-02 13:12:41 
274  188  191  66  1014  2018-09-02 13:27:08 
275  189  195  66  1014  2018-09-02 13:41:34 
276  196  198  64  1014  2018-09-02 13:56:00 
277  210  202  64  1014  2018-09-02 14:10:26 
278  216  203  64  1014  2018-09-02 14:24:52 
279  213  206  64  1015  2018-09-02 14:39:18 
280  213  205  63  1015  2018-09-02 14:53:45 
281  207  204  62  1016  2018-09-02 15:08:11 
282  218  202  61  1015  2018-09-02 15:22:38 
283  217  188  61  1016  2018-09-02 15:37:04 
284  217  185  62  1015  2018-09-02 15:51:30 
285  207  185  62  1015  2018-09-02 16:05:56 
286  203  168  63  1015  2018-09-02 16:20:22 
287  210  153  65  1015  2018-09-02 16:34:48 
288  208  150  70  1016  2018-09-02 16:49:15 
289  203  138  70  1016  2018-09-02 17:03:41 
290  195  140  70  1017  2018-09-02 17:18:07 
291  191  145  71  1017  2018-09-02 17:32:33 
292  192  140  71  1017  2018-09-02 17:46:59 
293  192  145  71  1017  2018-09-02 18:01:25 
294  189  143  72  1017  2018-09-02 18:15:51 
295  198  146  72  1017  2018-09-02 18:30:18 
296  188  142  72  1017  2018-09-02 18:44:44 
297  185  141  72  1018  2018-09-02 18:59:10 
298  199  138  73  1018  2018-09-02 19:13:36 
299  191  141  73  1018  2018-09-02 19:28:02 
300  184  137  73  1019  2018-09-02 19:42:28 
301  185  137  73  1018  2018-09-02 19:56:54 
302  190  134  73  1018  2018-09-02 20:11:20 
303  186  126  74  1019  2018-09-02 20:25:47 
304  187  124  74  1019  2018-09-02 20:40:13 
305  191  126  74  1019  2018-09-02 20:54:39 
306  192  125  74  1019  2018-09-02 21:09:05 
307  194  129  74  1020  2018-09-02 21:23:31 
308  190  124  74  1020  2018-09-02 21:37:57 
309  187  122  74  1019  2018-09-02 21:52:24 
310  183  124  75  1019  2018-09-02 22:06:50 
311  179  124  75  1019  2018-09-02 22:21:16 
312  188  120  75  1019  2018-09-02 22:35:42 
313  185  119  75  1019  2018-09-02 22:50:09 
314  176  120  75  1019  2018-09-02 23:04:35 
315  180  119  75  1019  2018-09-02 23:19:01 
316  173  115  76  1019  2018-09-02 23:33:27 
317  182  116  76  1019  2018-09-02 23:47:54 
318  178  113  76  1020  2018-09-03 00:02:20 
319  177  110  76  1019  2018-09-03 00:16:46 
320  174  116  76  1019  2018-09-03 00:31:12 
321  168  115  76  1019  2018-09-03 00:45:38 
322  173  118  76  1019  2018-09-03 01:00:05 
323  175  121  76  1019  2018-09-03 01:14:31 
324  177  123  76  1020  2018-09-03 01:28:57 
325  171  121  77  1019  2018-09-03 01:43:23 
326  167  120  77  1019  2018-09-03 01:57:50 
327  169  121  77  1019  2018-09-03 02:12:16 
328  173  122  77  1019  2018-09-03 02:26:42 
329  182  118  77  1019  2018-09-03 02:41:09 
330  164  120  77  1019  2018-09-03 02:55:35 
331  172  119  77  1019  2018-09-03 03:10:01 
332  176  119  77  1019  2018-09-03 03:24:28 
333  171  122  77  1018  2018-09-03 03:38:54 
334  168  122  77  1018  2018-09-03 03:53:20 
335  167  124  77  1018  2018-09-03 04:07:46 
336  167  127  77  1019  2018-09-03 04:22:12 
337  177  126  77  1018  2018-09-03 04:36:38 
338  166  124  77  1018  2018-09-03 04:51:04 
339  165  124  100  1018  2018-09-03 05:05:31 
340  180  126  100  1018  2018-09-03 05:19:57 
341  178  126  100  1018  2018-09-03 05:34:24 
342  162  127  100  1018  2018-09-03 05:48:50 
343  167  126  100  1018  2018-09-03 06:03:17 
344  167  126  100  1017  2018-09-03 06:17:43 
345  167  125  100  1018  2018-09-03 06:32:10 
346  163  125  100  1018  2018-09-03 06:46:36 
347  159  125  100  1018  2018-09-03 07:01:03 
348  161  127  100  1018  2018-09-03 07:15:30 
349  180  126  100  1017  2018-09-03 07:29:56 
350  162  128  100  1018  2018-09-03 07:44:23 
351  167  129  100  1018  2018-09-03 07:58:49 
352  178  132  100  1018  2018-09-03 08:13:16 
353  159  133  101  1018  2018-09-03 08:27:42 
354  176  135  101  1018  2018-09-03 08:42:09 
355  176  168  77  1018  2018-09-03 10:23:11 
356  198  169  76  1017  2018-09-03 10:37:37 
357  187  172  76  1018  2018-09-03 10:52:03 
358  181  172  74  1017  2018-09-03 11:06:29 
359  193  175  71  1017  2018-09-03 11:41:38 
360  194  175  71  1016  2018-09-03 11:56:04 
361  201  186  71  1016  2018-09-03 12:10:30 
362  202  189  70  1014  2018-09-03 12:24:57 
363  193  190  67  1014  2018-09-03 12:39:23 
364  194  196  67  1014  2018-09-03 12:53:49 
365  196  200  67  1013  2018-09-03 13:08:15 
366  206  210  66  1013  2018-09-03 13:22:41 
367  205  211  65  1014  2018-09-03 13:37:08 
368  204  211  64  1014  2018-09-03 13:51:34 
369  215  204  63  1012  2018-09-03 14:06:00 
370  209  207  62  1012  2018-09-03 14:20:26 
371  231  209  61  1012  2018-09-03 14:34:52 
372  213  206  61  1011  2018-09-03 14:49:19 
373  218  204  61  1012  2018-09-03 15:03:45 
374  214  201  60  1012  2018-09-03 15:18:11 
375  217  196  60  1012  2018-09-03 15:32:37 
376  221  196  57  1012  2018-09-03 15:47:03 
377  218  186  57  1012  2018-09-03 16:01:30 
378  216  171  60  1012  2018-09-03 16:15:56 
379  223  175  60  1012  2018-09-03 16:30:22 
380  217  175  60  1012  2018-09-03 16:44:48 
381  222  171  60  1012  2018-09-03 16:59:15 
382  214  170  61  1012  2018-09-03 17:13:41 
383  210  160  62  1013  2018-09-03 17:28:07 
384  212  160  62  1013  2018-09-03 17:42:33 
385  219  153  63  1013  2018-09-03 17:57:00 
386  205  153  64  1013  2018-09-03 18:11:26 
387  206  148  65  1013  2018-09-03 18:25:52 
388  205  150  66  1013  2018-09-03 18:40:18 
389  213  147  66  1013  2018-09-03 18:54:45 
390  206  146  66  1012  2018-09-03 19:09:11 
391  208  142  67  1013  2018-09-03 19:23:37 
392  202  138  67  1012  2018-09-03 19:38:04 
393  204  133  67  1012  2018-09-03 19:52:31 
394  201  132  67  1013  2018-09-03 20:06:57 
395  199  130  67  1013  2018-09-03 20:21:23 
396  212  127  67  1013  2018-09-03 20:35:49 
397  205  136  70  1013  2018-09-03 20:50:16 
398  206  137  67  1013  2018-09-03 21:04:42 
399  207  138  67  1012  2018-09-03 21:19:08 
400  194  136  70  1012  2018-09-03 21:33:34 
401  205  137  70  1013  2018-09-03 21:48:01 
402  200  138  70  1012  2018-09-03 22:02:27 
403  200  138  70  1012  2018-09-03 22:16:53 
404  202  137  70  1012  2018-09-03 22:31:19 
405  192  137  70  1011  2018-09-03 22:45:45 
406  196  137  71  1011  2018-09-03 23:00:12 
407  195  137  71  1011  2018-09-03 23:14:38 
408  183  134  71  1011  2018-09-03 23:29:04 
409  199  137  71  1011  2018-09-03 23:43:31 
410  190  128  71  1011  2018-09-03 23:57:57 
411  180  124  71  1010  2018-09-04 00:12:23 
412  179  121  72  1010  2018-09-04 00:26:49 
413  185  117  72  1010  2018-09-04 00:41:15 
414  186  118  72  1010  2018-09-04 00:55:41 
415  189  118  72  1010  2018-09-04 01:10:07 
416  175  127  72  1010  2018-09-04 01:24:34 
417  192  129  72  1011  2018-09-04 01:39:00 
418  192  123  72  1011  2018-09-04 01:53:26 
419  182  122  72  1011  2018-09-04 02:07:52 
420  178  125  72  1011  2018-09-04 02:22:18 
421  171  129  72  1011  2018-09-04 02:36:44 
422  169  130  72  1011  2018-09-04 02:51:11 
423  168  126  73  1010  2018-09-04 03:05:37 
424  172  119  73  1011  2018-09-04 03:20:03 
425  177  113  73  1011  2018-09-04 03:34:29 
426  175  121  73  1010  2018-09-04 03:48:56 
427  169  121  73  1010  2018-09-04 04:03:22 
428  185  121  73  1010  2018-09-04 04:17:48 
429  170  122  73  1010  2018-09-04 04:32:14 
430  175  123  73  1010  2018-09-04 04:46:40 
431  179  126  74  1009  2018-09-04 05:01:06 
432  174  124  74  1010  2018-09-04 05:15:33 
433  177  126  74  1010  2018-09-04 05:29:59 
434  180  124  74  1010  2018-09-04 05:44:25 
435  169  123  74  1010  2018-09-04 05:58:51 
436  176  119  74  1010  2018-09-04 06:13:17 
437  173  117  74  1011  2018-09-04 06:27:43 
438  164  114  74  1010  2018-09-04 06:42:09 
439  165  109  75  1010  2018-09-04 06:56:36 
440  166  116  75  1009  2018-09-04 07:11:02 
441  178  116  75  1011  2018-09-04 07:25:28 
442  179  119  75  1011  2018-09-04 07:39:54 
443  164  121  75  1012  2018-09-04 07:54:20 
444  170  125  75  1012  2018-09-04 08:08:47 
445  181  123  75  1012  2018-09-04 08:23:13 
446  181  122  75  1012  2018-09-04 08:37:39 
447  173  121  75  1011  2018-09-04 08:52:05 
448  170  128  75  1012  2018-09-04 09:06:31 
449  163  134  75  1011  2018-09-04 09:20:57 
450  168  137  75  1012  2018-09-04 09:35:24 
451  177  143  75  1011  2018-09-04 09:49:50 
452  175  150  74  1012  2018-09-04 10:04:16 
453  174  149  73  1012  2018-09-04 10:18:43 
454  176  151  72  1011  2018-09-04 10:33:09 
455  175  151  72  1011  2018-09-04 10:47:35 
456  176  144  72  1011  2018-09-04 11:02:02 
457  186  157  71  1011  2018-09-04 11:16:28 
458  192  162  71  1011  2018-09-04 11:30:54 
459  192  158  71  1011  2018-09-04 11:45:20 
460  177  161  70  1010  2018-09-04 11:59:47 
461  183  169  70  1010  2018-09-04 12:14:13 
462  179  174  67  1010  2018-09-04 12:28:39 
463  200  175  67  1010  2018-09-04 12:43:05 
464  199  173  66  1010  2018-09-04 12:57:31 
465  188  180  66  1011  2018-09-04 13:11:58 
466  192  180  65  1011  2018-09-04 13:26:24 
467  199  189  65  1010  2018-09-04 13:40:50 
468  193  181  64  1010  2018-09-04 13:55:16 
469  202  179  63  1009  2018-09-04 14:09:42 
470  201  191  63  1009  2018-09-04 14:24:09 
471  199  195  61  1009  2018-09-04 14:38:35 
472  201  193  60  1009  2018-09-04 14:53:01 
473  222  194  57  1009  2018-09-04 15:07:27 
474  211  182  60  1009  2018-09-04 15:21:54 
475  206  165  60  1009  2018-09-04 15:36:20 
476  199  160  62  1009  2018-09-04 15:50:46 
477  201  154  64  1010  2018-09-04 16:05:12 
478  194  151  65  1009  2018-09-04 16:19:38 
479  203  146  66  1011  2018-09-04 16:34:05 
480  207  140  66  1010  2018-09-04 16:48:32 
481  204  139  66  1010  2018-09-04 17:02:58 
482  204  142  66  1011  2018-09-04 17:17:24 
483  208  134  66  1010  2018-09-04 17:31:50 
484  211  134  67  1011  2018-09-04 17:46:17 
485  206  131  70  1011  2018-09-04 18:00:43 
486  212  125  67  1012  2018-09-04 18:15:09 
487  215  122  66  1011  2018-09-04 18:29:36 
488  228  121  65  1012  2018-09-04 18:44:02 
489  226  119  65  1012  2018-09-04 18:58:28 
490  224  119  65  1013  2018-09-04 19:12:54 
491  230  113  64  1013  2018-09-04 19:27:21 
492  229  113  64  1013  2018-09-04 19:41:47 
493  231  107  63  1014  2018-09-04 19:56:13 
494  232  116  63  1013  2018-09-04 20:10:40 
495  238  120  63  1014  2018-09-04 20:25:06 
496  234  113  62  1014  2018-09-04 20:39:32 
497  239  110  62  1014  2018-09-04 20:53:59 
498  232  109  62  1014  2018-09-04 21:08:25 
499  240  112  62  1014  2018-09-04 21:22:51 
500  242  112  62  1014  2018-09-04 21:37:17 
501  223  113  62  1013  2018-09-04 21:51:44 
502  213  110  64  1012  2018-09-04 22:06:10 
503  207  114  65  1013  2018-09-04 22:20:36 
504  200  113  66  1014  2018-09-04 22:35:02 
505  197  113  67  1013  2018-09-04 22:49:29 
506  193  118  67  1013  2018-09-04 23:03:55 
507  184  113  70  1013  2018-09-04 23:18:21 
508  184  112  71  1013  2018-09-04 23:32:47 
509  181  115  71  1014  2018-09-04 23:47:14 
510  185  112  72  1013  2018-09-05 00:01:40 
511  185  113  72  1013  2018-09-05 00:16:06 
512  181  108  72  1013  2018-09-05 00:30:32 
513  187  111  73  1014  2018-09-05 00:44:59 
514  178  110  73  1014  2018-09-05 00:59:25 
515  174  109  73  1014  2018-09-05 01:13:51 
516  175  110  73  1014  2018-09-05 01:28:17 
517  174  110  73  1013  2018-09-05 01:42:43 
518  181  110  73  1014  2018-09-05 01:57:10 
519  175  107  74  1013  2018-09-05 02:11:36 
520  173  110  74  1013  2018-09-05 02:26:02 
521  173  109  74  1013  2018-09-05 02:40:28 
522  175  107  74  1013  2018-09-05 02:54:54 
523  182  108  74  1014  2018-09-05 03:09:21 
524  171  110  74  1013  2018-09-05 03:23:47 
525  176  110  74  1013  2018-09-05 03:38:13 
526  172  109  74  1013  2018-09-05 03:52:39 
527  166  113  74  1013  2018-09-05 04:07:05 
528  173  114  74  1013  2018-09-05 04:21:32 
529  163  117  74  1013  2018-09-05 04:35:58 
530  164  114  74  1013  2018-09-05 04:50:24 
531  164  113  74  1013  2018-09-05 05:04:50 
532  167  114  74  1014  2018-09-05 05:19:16 
533  172  118  74  1014  2018-09-05 05:33:43 
534  174  116  74  1014  2018-09-05 05:48:09 
535  168  118  74  1014  2018-09-05 06:02:35 
536  165  119  73  1015  2018-09-05 06:17:01 
537  158  119  74  1015  2018-09-05 06:31:27 
538  167  121  73  1014  2018-09-05 06:45:53 
539  161  117  73  1015  2018-09-05 07:00:20 
540  174  121  73  1015  2018-09-05 07:14:46 
541  165  114  73  1015  2018-09-05 07:29:12 
542  160  111  73  1015  2018-09-05 07:43:38 
543  166  96  73  1016  2018-09-05 07:58:04 
544  159  100  73  1016  2018-09-05 08:12:29 
545  159  100  74  1016  2018-09-05 08:26:56 
546  164  103  74  1016  2018-09-05 08:41:22 
547  157  105  74  1017  2018-09-05 08:55:48 
548  158  110  74  1017  2018-09-05 09:10:14 
549  165  112  74  1016  2018-09-05 09:24:40 
550  157  120  74  1017  2018-09-05 09:39:06 
551  174  119  74  1017  2018-09-05 09:53:32 
552  179  123  74  1017  2018-09-05 10:07:58 
553  175  120  70  1017  2018-09-05 10:22:25 
554  190  120  70  1017  2018-09-05 10:36:51 
555  189  121  71  1016  2018-09-05 10:51:17 
556  197  121  70  1017  2018-09-05 11:05:43 
557  202  123  67  1017  2018-09-05 11:20:10 
558  195  120  67  1017  2018-09-05 11:34:36 
559  206  123  66  1017  2018-09-05 11:49:02 
560  201  127  64  1017  2018-09-05 12:03:29 
561  206  137  63  1017  2018-09-05 12:17:56 
562  224  150  57  1017  2018-09-05 13:58:56 
563  229  150  56  1017  2018-09-05 14:13:22 
564  224  146  55  1017  2018-09-05 14:27:48 
565  221  152  55  1016  2018-09-05 14:42:14 
566  218  155  52  1017  2018-09-05 14:56:42 
567  214  160  51  1017  2018-09-05 15:11:08 
568  215  151  51  1016  2018-09-05 15:25:35 
569  215  144  53  1017  2018-09-05 17:06:35 
570  216  136  53  1017  2018-09-05 17:21:01 
571  221  125  53  1018  2018-09-05 17:35:28 
572  219  127  54  1017  2018-09-05 17:49:54 
573  219  122  54  1018  2018-09-05 18:04:20 
574  216  120  54  1018  2018-09-05 18:18:46 
575  218  120  53  1018  2018-09-05 18:33:13 
576  215  118  55  1019  2018-09-05 18:47:39 
577  208  118  56  1019  2018-09-05 19:02:05 
578  201  116  56  1019  2018-09-05 19:16:32 
579  202  118  56  1019  2018-09-05 19:30:58 
580  201  116  57  1019  2018-09-05 19:45:24 
581  213  110  56  1019  2018-09-05 19:59:50 
582  213  110  56  1020  2018-09-05 20:14:17 
583  208  111  56  1020  2018-09-05 20:28:43 
584  212  110  55  1020  2018-09-05 20:43:09 
585  218  110  55  1020  2018-09-05 20:57:36 
586  218  113  55  1020  2018-09-05 21:12:02 
587  214  101  55  1021  2018-09-05 21:26:28 
588  215  102  55  1020  2018-09-05 21:40:55 
589  216  104  55  1020  2018-09-05 21:55:21 
590  208  99  55  1020  2018-09-05 22:09:47 
591  214  100  57  1020  2018-09-05 22:24:13 
592  219  92  56  1021  2018-09-05 22:38:39 
593  214  88  57  1021  2018-09-05 22:53:05 
594  208  81  55  1021  2018-09-05 23:07:30 
595  200  88  56  1021  2018-09-05 23:21:56 
596  185  96  57  1021  2018-09-05 23:36:22 
597  183  90  60  1020  2018-09-05 23:50:47 
598  176  93  61  1021  2018-09-06 00:05:13 
599  169  83  62  1021  2018-09-06 00:19:38 
600  166  83  63  1021  2018-09-06 00:34:04 
601  163  83  64  1020  2018-09-06 00:48:30 
602  163  78  64  1021  2018-09-06 01:02:56 
603  162  82  65  1020  2018-09-06 01:17:22 
604  164  75  65  1020  2018-09-06 01:31:48 
605  159  76  66  1019  2018-09-06 01:46:14 
606  164  84  66  1020  2018-09-06 02:00:40 
607  165  84  66  1019  2018-09-06 02:15:06 
608  157  80  67  1019  2018-09-06 02:29:32 
609  160  81  67  1019  2018-09-06 02:43:58 
610  154  80  67  1019  2018-09-06 02:58:24 
611  151  81  67  1019  2018-09-06 03:12:50 
612  154  85  67  1019  2018-09-06 03:27:16 
613  151  79  70  1020  2018-09-06 03:41:42 
614  150  78  70  1020  2018-09-06 03:56:08 
615  148  75  70  1020  2018-09-06 04:10:33 
616  147  74  70  1020  2018-09-06 04:24:59 
617  147  78  70  1020  2018-09-06 04:39:25 
618  159  75  71  1020  2018-09-06 04:53:51 
619  145  75  71  1019  2018-09-06 05:08:17 
620  145  77  71  1020  2018-09-06 05:22:42 
621  146  78  71  1021  2018-09-06 05:37:08 
622  160  77  71  1022  2018-09-06 05:51:34 
623  149  82  71  1022  2018-09-06 06:06:00 
624  145  77  72  1023  2018-09-06 06:20:26 
625  140  78  72  1022  2018-09-06 06:34:52 
626  142  79  72  1022  2018-09-06 06:49:18 
627  143  76  72  1022  2018-09-06 07:03:44 
628  139  79  72  1022  2018-09-06 07:18:09 
629  153  86  72  1022  2018-09-06 07:32:35 
630  158  93  72  1022  2018-09-06 07:47:01 
631  147  93  72  1023  2018-09-06 08:01:27 
632  157  96  73  1023  2018-09-06 08:15:52 
633  142  98  73  1023  2018-09-06 08:30:17 
634  164  130  66  1022  2018-09-06 10:11:18 
635  165  139  65  1022  2018-09-06 10:25:44 
636  179  135  64  1022  2018-09-06 10:40:10 
637  176  135  64  1021  2018-09-06 10:54:36 
638  185  141  63  1021  2018-09-06 11:09:02 
639  166  145  63  1021  2018-09-06 11:23:28 
640  173  135  64  1021  2018-09-06 11:37:55 
641  162  127  64  1021  2018-09-06 11:52:21 
642  163  146  63  1021  2018-09-06 12:06:47 
643  176  153  62  1021  2018-09-06 12:21:13 
644  180  156  61  1021  2018-09-06 12:35:39 
645  168  164  61  1021  2018-09-06 12:50:06 
646  173  148  62  1020  2018-09-06 13:04:32 
647  174  174  62  1021  2018-09-06 13:18:58 
648  178  149  60  1021  2018-09-06 13:33:25 
649  181  145  60  1021  2018-09-06 13:47:51 
650  175  139  60  1021  2018-09-06 14:02:20 
651  182  100  65  1022  2018-09-06 15:54:06 
652  200  102  63  1022  2018-09-06 16:11:17 
653  201  106  63  1021  2018-09-06 16:14:06 
654  214  118  62  1021  2018-09-06 16:20:59 
655  210  117  62  1021  2018-09-06 16:21:06 
656  209  117  62  1021  2018-09-06 16:21:13 
657  205  117  62  1021  2018-09-06 16:21:20 
658  206  117  62  1021  2018-09-06 16:21:28 
659  206  116  62  1021  2018-09-06 16:21:35 
660  211  115  62  1021  2018-09-06 16:21:43 
661  205  117  62  1021  2018-09-06 16:21:50 
662  210  117  62  1021  2018-09-06 16:21:57 
663  211  117  61  1021  2018-09-06 16:22:04 
664  206  115  61  1021  2018-09-06 16:22:11 
665  212  113  61  1021  2018-09-06 16:22:18 
666  208  112  61  1021  2018-09-06 16:22:25 
667  205  112  61  1021  2018-09-06 16:22:32 
668  206  112  61  1021  2018-09-06 16:22:39 
669  206  114  61  1021  2018-09-06 16:22:46 
670  216  117  61  1021  2018-09-06 16:23:09 
671  205  116  61  1021  2018-09-06 16:23:15 
672  206  121  61  1021  2018-09-06 16:23:23 
673  207  120  61  1021  2018-09-06 16:23:30 
674  210  120  61  1021  2018-09-06 16:23:37 
675  207  120  61  1021  2018-09-06 16:23:44 
676  212  118  61  1021  2018-09-06 16:23:51 
677  207  121  61  1021  2018-09-06 16:23:58 
678  215  121  61  1021  2018-09-06 16:24:05 
679  209  123  61  1021  2018-09-06 16:24:12 
680  208  123  61  1021  2018-09-06 16:25:18 
681  213  120  61  1021  2018-09-06 16:25:25 
682  216  121  61  1020  2018-09-06 16:25:32 
683  208  120  61  1021  2018-09-06 16:25:39 
684  212  121  60  1021  2018-09-06 16:25:46 
685  224  120  54  1022  2018-09-06 17:22:28 
686  201  93  62  1022  2018-09-06 19:02:43 
687  219  89  55  1023  2018-09-06 20:43:00 
688  211  89  55  1023  2018-09-06 22:23:18 
689  164  83  64  1021  2018-09-07 00:03:38 
690  157  88  67  1022  2018-09-07 01:43:56 
691  161  82  71  1023  2018-09-07 03:24:15 
692  143  76  72  1023  2018-09-07 05:04:34 
693  142  76  72  1023  2018-09-07 06:44:52 
694  148  104  73  1023  2018-09-07 08:25:10 
695  146  129  72  1024  2018-09-07 10:05:29 
696  155  145  70  1023  2018-09-07 11:45:48 
697  165  161  64  1022  2018-09-07 13:26:08 
698  178  142  62  1022  2018-09-07 15:06:27 
699  209  145  62  1022  2018-09-07 16:46:46 
700  191  159  55  1025  2018-09-08 15:24:09 
701  184  133  56  1026  2018-09-08 17:04:25 
702  175  119  62  1026  2018-09-08 18:44:45 
703  175  106  64  1028  2018-09-08 20:25:05 
704  173  93  64  1029  2018-09-08 22:05:23 
705  166  87  66  1027  2018-09-08 23:45:40 
706  165  87  67  1027  2018-09-09 01:25:59 
707  144  80  70  1027  2018-09-09 03:06:18 
708  147  80  71  1027  2018-09-09 04:46:37 
709  139  73  71  1027  2018-09-09 06:26:56 
710  137  106  72  1027  2018-09-09 08:07:14 
711  165  139  71  1029  2018-09-09 09:47:33 
712  180  163  66  1028  2018-09-09 11:27:52 
713  176  176  57  1025  2018-09-09 13:08:12 
714  200  185  52  1025  2018-09-09 14:48:32 
715  212  166  52  1024  2018-09-09 16:28:52 
716  221  139  55  1024  2018-09-09 18:09:12 
717  232  125  53  1024  2018-09-09 19:49:32 
718  189  121  62  1024  2018-09-09 21:29:51 
719  176  117  64  1023  2018-09-09 23:10:11 
720  179  103  66  1021  2018-09-10 00:50:30 
721  165  79  66  1021  2018-09-10 02:30:48 
722  153  70  66  1019  2018-09-10 04:11:07 
723  149  69  67  1019  2018-09-10 05:51:26 
724  140  65  67  1021  2018-09-10 07:31:46 
725  144  133  70  1019  2018-09-10 09:12:04 
726  168  167  70  1019  2018-09-10 10:52:24 
727  195  182  67  1019  2018-09-10 12:32:43 
728  221  190  61  1018  2018-09-10 14:13:03 
729  222  183  60  1016  2018-09-10 15:53:23 
730  217  160  62  1016  2018-09-10 17:33:43 
731  205  144  67  1017  2018-09-10 19:14:02 
732  188  135  70  1017  2018-09-10 20:54:22 
733  174  117  71  1016  2018-09-10 22:34:42 
734  175  104  71  1015  2018-09-11 00:15:01 
735  162  85  71  1014  2018-09-11 01:55:18 
736  155  87  72  1013  2018-09-11 03:35:36 
737  165  85  72  1013  2018-09-11 04:16:39 
738  154  76  72  1013  2018-09-11 05:56:58 
739  148  82  72  1013  2018-09-11 07:37:17 
740  148  148  71  1013  2018-09-11 09:17:36 
741  178  218  61  1013  2018-09-11 10:57:55 
742  204  216  54  1013  2018-09-11 12:38:15 
743  237  239  52  1013  2018-09-11 14:18:35 
744  176  144  65  1018  2018-09-12 08:22:41 
745  190  148  65  1018  2018-09-12 09:29:31 
746  197  160  64  1018  2018-09-12 10:36:25 
747  195  168  64  1018  2018-09-12 11:43:19 
748  226  175  61  1017  2018-09-12 12:50:13 
749  222  189  56  1018  2018-09-12 13:57:07 
750  242  192  54  1016  2018-09-12 15:04:02 
751  236  175  53  1016  2018-09-12 16:10:56 
752  235  157  55  1016  2018-09-12 17:17:51 
753  224  154  57  1017  2018-09-12 18:24:45 
754  228  148  60  1017  2018-09-12 19:31:39 
755  229  145  60  1017  2018-09-12 20:38:34 
756  227  150  57  1018  2018-09-12 21:45:28 
757  196  136  64  1018  2018-09-12 22:52:23 
758  189  139  66  1017  2018-09-12 23:59:17 
759  180  145  67  1017  2018-09-13 01:06:11 
760  184  139  70  1017  2018-09-13 02:13:05 
761  177  146  70  1016  2018-09-13 03:19:59 
762  171  145  67  1018  2018-09-13 04:26:53 
763  177  134  71  1017  2018-09-13 05:33:47 
764  184  132  71  1018  2018-09-13 06:40:41 
765  170  139  73  1018  2018-09-13 07:47:35 
766  174  150  71  1019  2018-09-13 08:54:29 
767  188  153  70  1019  2018-09-13 10:01:23 
768  188  153  70  1019  2018-09-13 11:08:17 
769  216  160  65  1019  2018-09-13 12:15:12 
770  232  168  61  1019  2018-09-13 13:22:06 
771  241  178  57  1018  2018-09-13 14:29:01 
772  249  193  52  1018  2018-09-13 15:35:56 
773  238  178  52  1016  2018-09-13 16:42:50 
774  236  165  53  1018  2018-09-13 17:49:45 
775  242  154  55  1018  2018-09-13 18:56:39 
776  238  151  57  1018  2018-09-13 20:03:34 
777  245  150  57  1019  2018-09-13 21:10:29 
778  233  149  56  1019  2018-09-13 22:17:23 
779  214  149  62  1019  2018-09-13 23:24:18 
780  192  148  64  1019  2018-09-14 00:31:12 
781  184  144  65  1019  2018-09-14 01:38:06 
782  187  146  66  1019  2018-09-14 02:45:01 
783  185  145  67  1019  2018-09-14 03:51:55 
784  181  146  70  1018  2018-09-14 04:58:49 
785  187  144  70  1018  2018-09-14 06:05:43 
786  178  140  72  1019  2018-09-14 07:12:38 
787  174  142  73  1019  2018-09-14 08:19:32 
788  185  151  75  1019  2018-09-14 09:26:26 
789  178  160  74  1019  2018-09-14 10:33:20 
790  197  168  72  1019  2018-09-14 11:40:15 
791  203  185  71  1019  2018-09-14 12:47:09 
792  199  197  70  1018  2018-09-14 13:54:03 
793  212  204  64  1018  2018-09-14 15:00:58 
794  211  180  66  1018  2018-09-14 16:07:52 
795  215  174  64  1017  2018-09-14 17:14:46 
796  220  163  65  1018  2018-09-14 18:21:41 
797  219  157  66  1019  2018-09-14 19:28:35 
798  216  152  66  1019  2018-09-14 20:35:30 
799  219  149  66  1019  2018-09-14 21:16:34 
800  213  146  70  1020  2018-09-14 22:23:28 
801  203  138  71  1020  2018-09-14 23:30:22 
802  190  140  72  1019  2018-09-15 00:37:16 
803  195  138  73  1019  2018-09-15 01:44:11 
804  184  142  73  1019  2018-09-15 02:51:05 
805  190  137  74  1019  2018-09-15 03:57:59 
806  188  135  74  1018  2018-09-15 05:04:54 
807  180  125  74  1018  2018-09-15 06:11:48 
808  184  132  75  1019  2018-09-15 07:18:42 
809  185  136  76  1019  2018-09-15 08:25:37 
810  202  155  75  1020  2018-09-15 09:32:31 
811  186  164  73  1021  2018-09-15 10:39:25 
812  192  170  70  1019  2018-09-15 11:46:19 
813  201  179  65  1020  2018-09-15 12:53:14 
814  203  176  65  1019  2018-09-15 14:00:08 
815  223  182  63  1019  2018-09-15 15:07:02 
816  212  168  61  1018  2018-09-15 16:13:56 
817  214  160  61  1018  2018-09-15 17:20:51 
818  217  144  64  1018  2018-09-15 18:27:45 
819  232  139  62  1019  2018-09-15 19:34:39 
820  237  137  61  1019  2018-09-15 20:41:34 
821  232  137  60  1018  2018-09-15 21:48:28 
822  225  130  61  1018  2018-09-15 22:55:23 
823  227  122  62  1018  2018-09-16 00:02:17 
824  199  111  65  1016  2018-09-16 01:09:12 
825  180  100  67  1016  2018-09-16 02:16:06 
826  179  98  70  1015  2018-09-16 03:23:00 
827  175  104  71  1014  2018-09-16 04:29:54 
828  168  99  71  1015  2018-09-16 05:36:47 
829  179  97  72  1015  2018-09-16 06:43:40 
830  165  102  72  1015  2018-09-16 07:50:32 
831  167  140  73  1015  2018-09-16 08:57:26 
832  188  174  74  1015  2018-09-16 10:04:21 
833  202  201  71  1015  2018-09-16 11:11:15 
834  221  214  70  1013  2018-09-16 12:18:09 
835  211  210  62  1014  2018-09-16 13:25:04 
836  225  205  56  1012  2018-09-16 14:31:58 
837  226  206  54  1013  2018-09-16 15:38:53 
838  239  196  53  1013  2018-09-16 16:45:47 
839  219  167  60  1013  2018-09-16 17:52:42 
840  222  161  62  1013  2018-09-16 18:59:36 
841  236  160  60  1014  2018-09-16 20:06:31 
842  232  153  57  1014  2018-09-16 21:13:25 
843  208  137  64  1013  2018-09-16 22:20:19 
844  195  139  67  1012  2018-09-16 23:27:14 
845  190  136  71  1011  2018-09-17 00:34:08 
846  197  138  73  1011  2018-09-17 01:41:02 
847  199  137  73  1011  2018-09-17 02:47:56 
848  179  141  73  1011  2018-09-17 05:01:44 
849  190  145  73  1010  2018-09-17 06:08:39 
850  181  144  73  1010  2018-09-17 07:15:33 
851  188  148  71  1012  2018-09-17 08:22:27 
852  201  155  67  1012  2018-09-17 09:29:21 
853  188  168  67  1011  2018-09-17 10:10:25 
854  201  176  65  1012  2018-09-17 11:17:19 
855  212  182  64  1011  2018-09-17 12:24:14 
856  210  190  64  1010  2018-09-17 13:31:08 
857  215  166  66  1011  2018-09-17 14:38:02 
858  210  147  70  1011  2018-09-17 15:44:57 
859  204  151  72  1012  2018-09-17 16:51:51 
860  202  150  72  1012  2018-09-17 17:58:46 
861  194  146  73  1012  2018-09-17 19:05:40 
862  185  144  73  1013  2018-09-17 20:12:34 
863  188  147  73  1013  2018-09-17 21:19:29 
864  185  136  75  1013  2018-09-17 22:26:23 
865  180  142  75  1011  2018-09-17 23:33:17 
866  182  133  76  1012  2018-09-18 00:40:12 
867  175  131  76  1011  2018-09-18 01:47:06 
868  182  127  76  1011  2018-09-18 02:54:01 
869  175  135  76  1012  2018-09-18 04:00:55 
870  188  135  76  1011  2018-09-18 05:07:49 
871  176  127  76  1012  2018-09-18 06:14:43 
872  189  135  77  1012  2018-09-18 07:21:38 
873  173  138  77  1013  2018-09-18 08:28:33 
874  185  147  75  1015  2018-09-18 10:42:21 
875  192  152  74  1015  2018-09-18 11:49:15 
876  181  153  73  1015  2018-09-18 12:56:10 
877  187  161  71  1015  2018-09-18 14:03:04 
878  201  144  70  1014  2018-09-18 15:09:58 
879  200  154  67  1015  2018-09-18 16:16:52 
880  197  158  67  1016  2018-09-18 17:23:47 
881  192  139  70  1017  2018-09-18 18:30:41 
882  188  135  71  1017  2018-09-18 19:37:36 
883  192  128  70  1018  2018-09-18 20:44:30 
884  180  119  71  1019  2018-09-18 21:51:24 
885  173  117  72  1018  2018-09-18 22:58:18 
886  170  119  72  1018  2018-09-19 00:05:12 
887  166  125  71  1018  2018-09-19 01:12:06 
888  179  114  71  1019  2018-09-19 02:19:01 
889  162  112  70  1019  2018-09-19 03:25:55 
890  161  116  70  1019  2018-09-19 04:32:49 
891  154  89  71  1019  2018-09-19 05:39:43 
892  153  97  72  1021  2018-09-19 06:46:36 
893  153  90  73  1022  2018-09-19 07:53:29 
894  187  101  67  1024  2018-09-19 09:00:21 
895  211  91  63  1026  2018-09-19 10:07:14 
896  228  102  60  1027  2018-09-19 11:14:09 
897  213  95  56  1028  2018-09-19 12:21:03 
898  183  96  64  1028  2018-09-19 13:27:56 
899  213  141  62  1028  2018-09-19 14:34:51 
900  223  130  56  1029  2018-09-19 15:41:45 
901  216  126  54  1029  2018-09-19 16:48:40 
902  201  120  55  1030  2018-09-19 17:55:34 
903  198  108  60  1030  2018-09-19 19:02:29 
904  184  109  61  1033  2018-09-19 20:09:23 
905  178  92  62  1033  2018-09-19 21:16:17 
906  178  87  62  1032  2018-09-19 22:23:10 
907  177  76  62  1032  2018-09-19 23:04:14 
908  166  77  63  1032  2018-09-20 00:11:08 
909  171  72  62  1033  2018-09-20 01:18:02 
910  161  66  62  1033  2018-09-20 02:24:56 
911  163  65  62  1031  2018-09-20 03:31:50 
912  159  51  62  1030  2018-09-20 04:38:44 
913  160  48  63  1031  2018-09-20 05:45:38 
914  150  52  63  1030  2018-09-20 06:52:32 
915  164  87  64  1031  2018-09-20 07:59:26 
916  224  179  52  1025  2018-09-20 14:40:48 
917  215  171  52  1025  2018-09-20 15:47:43 
918  245  162  50  1026  2018-09-20 16:54:37 
919  223  137  52  1026  2018-09-20 18:01:32 
920  196  119  54  1026  2018-09-20 19:08:27 
921  188  111  57  1025  2018-09-20 20:15:22 
922  188  116  61  1026  2018-09-20 21:22:16 
923  171  118  62  1026  2018-09-20 22:29:10 
924  163  110  63  1027  2018-09-20 23:36:05 
925  164  111  64  1025  2018-09-21 00:42:59 
926  171  96  65  1026  2018-09-21 01:49:53 
927  159  94  66  1026  2018-09-21 02:56:45 
928  162  96  66  1025  2018-09-21 04:03:38 
929  166  100  67  1025  2018-09-21 05:10:30 
930  162  98  70  1025  2018-09-21 06:17:23 
931  147  110  71  1026  2018-09-21 07:24:17 
932  172  138  71  1026  2018-09-21 08:31:11 
933  153  145  71  1026  2018-09-21 09:38:05 
934  160  161  70  1026  2018-09-21 10:44:59 
935  167  175  66  1024  2018-09-21 11:51:53 
936  178  190  63  1024  2018-09-21 12:58:47 
937  200  188  61  1023  2018-09-21 14:05:42 
938  200  188  55  1024  2018-09-21 15:12:36 
939  215  186  51  1023  2018-09-21 16:19:30 
940  201  159  52  1023  2018-09-21 17:26:25 
941  196  143  54  1023  2018-09-21 18:33:19 
942  192  137  60  1024  2018-09-21 19:40:13 
943  194  136  61  1024  2018-09-21 20:47:08 
944  196  140  62  1024  2018-09-21 21:54:02 
945  179  129  62  1023  2018-09-21 23:00:57 
946  183  127  63  1023  2018-09-22 00:07:51 
947  173  133  63  1023  2018-09-22 01:14:45 
948  164  123  64  1022  2018-09-22 02:21:40 
949  179  110  64  1022  2018-09-22 03:28:34 
950  161  110  65  1021  2018-09-22 04:35:28 
951  209  185  60  1018  2018-09-22 15:18:38 
952  217  183  57  1018  2018-09-22 16:25:32 
953  219  160  61  1020  2018-09-22 17:32:26 
954  200  147  62  1020  2018-09-22 18:39:21 
955  189  143  64  1021  2018-09-22 19:46:15 
956  205  139  64  1021  2018-09-22 20:53:09 
957  209  139  63  1021  2018-09-22 22:00:04 
958  194  136  63  1021  2018-09-22 23:06:58 
959  180  131  64  1019  2018-09-23 00:13:52 
960  183  124  65  1020  2018-09-23 01:20:46 
961  180  128  66  1020  2018-09-23 02:27:40 
962  173  123  66  1020  2018-09-23 03:34:35 
963  170  120  67  1019  2018-09-23 04:41:29 
964  168  116  70  1021  2018-09-23 05:48:23 
965  165  115  70  1020  2018-09-23 06:55:18 
966  166  139  70  1021  2018-09-23 08:02:12 
967  168  159  70  1022  2018-09-23 09:09:06 
968  176  170  67  1022  2018-09-23 10:16:01 
969  188  181  66  1021  2018-09-23 11:22:55 
970  191  182  65  1022  2018-09-23 12:29:49 
971  213  188  65  1020  2018-09-23 13:36:43 
972  226  190  63  1019  2018-09-23 14:43:38 
973  243  184  62  1019  2018-09-23 15:40:25 
974  244  181  62  1020  2018-09-23 16:47:16 
975  232  149  62  1019  2018-09-23 17:54:10 
976  222  155  64  1019  2018-09-23 19:01:04 
977  224  149  65  1018  2018-09-23 20:07:59 
978  215  149  66  1019  2018-09-23 21:14:53 
979  202  148  67  1019  2018-09-23 22:21:48 
980  202  146  67  1018  2018-09-23 23:28:42 
981  197  145  67  1018  2018-09-24 00:35:36 
982  192  138  67  1018  2018-09-24 01:42:31 
983  190  137  67  1016  2018-09-24 02:49:25 
984  180  129  67  1015  2018-09-24 03:56:19 
985  187  129  67  1014  2018-09-24 05:03:14 
986  175  111  70  1014  2018-09-24 06:10:08 
987  173  110  70  1014  2018-09-24 07:17:02 
988  173  143  70  1014  2018-09-24 08:23:56 
989  196  166  70  1014  2018-09-24 09:30:50 
990  185  186  67  1014  2018-09-24 10:37:45 
991  198  201  67  1013  2018-09-24 11:44:39 
992  201  209  67  1013  2018-09-24 12:51:33 
993  219  217  66  1010  2018-09-24 13:58:27 
994  233  215  65  1010  2018-09-24 15:05:21 
995  235  195  66  1009  2018-09-24 16:12:16 
996  235  177  70  1009  2018-09-24 17:19:11 
997  220  160  70  1011  2018-09-24 18:26:05 
998  221  157  66  1011  2018-09-24 19:33:00 
999  235  148  65  1011  2018-09-24 20:39:54 
1000  233  143  63  1010  2018-09-24 21:46:49 
1001  216  127  66  1010  2018-09-24 22:53:43 
1002  208  129  67  1009  2018-09-25 00:00:37 
1003  190  130  70  1010  2018-09-25 01:07:32 
1004  204  136  70  1010  2018-09-25 02:14:26 
1005  187  145  71  1010  2018-09-25 03:21:21 
1006  187  143  71  1010  2018-09-25 04:28:16 
1007  191  142  71  1010  2018-09-25 05:35:10 
1008  185  139  71  1010  2018-09-25 06:42:05 
1009  188  145  70  1011  2018-09-25 07:48:59 
1010  194  152  65  1011  2018-09-25 08:55:54 
1011  213  138  62  1011  2018-09-25 10:02:48 
1012  239  161  60  1012  2018-09-25 12:16:37 
1013  250  173  55  1011  2018-09-25 13:23:32 
1014  257  185  55  1010  2018-09-25 14:30:26 
1015  241  168  57  1011  2018-09-25 15:37:21 
1016  228  166  57  1012  2018-09-25 16:44:15 
1017  215  157  61  1011  2018-09-25 17:51:10 
1018  222  146  62  1013  2018-09-25 18:58:04 
1019  213  137  62  1014  2018-09-25 20:04:58 
1020  202  139  63  1014  2018-09-25 21:11:53 
1021  198  139  64  1016  2018-09-25 22:18:47 
1022  197  135  64  1016  2018-09-25 23:25:41 
1023  192  132  64  1015  2018-09-26 00:32:36 
1024  186  131  65  1016  2018-09-26 01:39:30 
1025  197  138  65  1015  2018-09-26 02:46:24 
1026  192  137  65  1015  2018-09-26 03:53:18 
1027  181  125  72  1016  2018-09-26 06:15:04 
1028  187  129  73  1016  2018-09-26 07:21:58 
1029  192  155  71  1017  2018-09-26 08:28:52 
1030  193  162  70  1017  2018-09-26 09:35:47 
1031  192  160  67  1017  2018-09-26 10:42:41 
1032  200  173  64  1017  2018-09-26 11:49:35 
1033  218  180  64  1016  2018-09-26 12:56:29 
1034  210  214  62  1015  2018-09-26 14:03:24 
1035  219  221  61  1016  2018-09-26 15:10:19 
1036  228  203  61  1016  2018-09-26 16:17:13 
1037  221  182  60  1016  2018-09-26 17:24:08 
1038  227  165  61  1016  2018-09-26 18:31:02 
1039  225  163  60  1016  2018-09-26 19:37:57 
1040  239  158  57  1016  2018-09-26 20:44:51 
1041  240  160  57  1016  2018-09-26 21:51:46 
1042  220  153  64  1016  2018-09-26 22:58:40 
1043  209  150  70  1016  2018-09-27 00:05:35 
1044  207  145  72  1016  2018-09-27 01:12:29 
1045  195  142  73  1016  2018-09-27 02:19:23 
1046  191  146  73  1015  2018-09-27 03:26:17 
1047  199  145  74  1014  2018-09-27 04:33:12 
1048  189  142  75  1014  2018-09-27 05:40:06 
1049  196  140  76  1015  2018-09-27 06:47:01 
1050  198  144  77  1016  2018-09-27 07:53:55 
1051  187  146  77  1016  2018-09-27 09:00:49 
1052  194  148  100  1016  2018-09-27 10:07:50 
1053  221  168  70  1014  2018-09-27 12:37:07 
1054  224  190  64  1015  2018-09-27 13:43:59 
1055  243  212  62  1015  2018-09-27 14:50:52 
1056  247  223  61  1014  2018-09-27 15:57:47 
1057  242  199  60  1014  2018-09-27 17:04:42 
1058  239  170  62  1014  2018-09-27 18:11:36 
1059  221  163  63  1014  2018-09-27 19:18:36 
1060  209  145  67  1014  2018-09-28 01:59:54 
1061  201  131  70  1015  2018-09-28 03:06:48 
1062  196  121  67  1015  2018-09-28 04:13:44 
1063  201  129  67  1018  2018-09-28 05:20:38 
1064  196  137  67  1018  2018-09-28 06:27:32 
1065  193  141  66  1020  2018-09-28 07:34:26 
1066  194  149  64  1021  2018-09-28 08:41:21 
1067  197  161  65  1021  2018-09-28 09:48:15 
1068  208  168  64  1023  2018-09-28 10:55:09 
1069  199  171  62  1023  2018-09-28 12:02:03 
1070  216  190  61  1023  2018-09-28 13:08:57 
1071  211  196  53  1023  2018-09-28 14:15:52 
1072  222  196  55  1024  2018-09-28 15:22:46 
1073  223  202  56  1024  2018-09-28 16:29:41 
1074  221  164  60  1024  2018-09-28 17:36:35 
1075  212  152  60  1025  2018-09-28 18:43:30 
1076  211  140  60  1026  2018-09-28 19:50:25 
1077  211  127  60  1027  2018-09-28 20:57:19 
1078  210  125  61  1027  2018-09-28 22:04:15 
1079  205  119  60  1028  2018-09-28 23:11:09 
1080  206  170  74  1018  2018-10-01 08:44:05 
1081  209  190  70  1018  2018-10-01 09:50:59 
1082  226  196  63  1018  2018-10-01 10:57:55 
1083  247  185  54  1017  2018-10-01 17:39:18 
1084  243  172  56  1018  2018-10-01 18:46:13 
1085  237  169  60  1018  2018-10-01 19:53:07 
1086  236  162  61  1019  2018-10-01 21:00:02 
1087  233  139  61  1021  2018-10-01 22:06:56 
1088  225  147  60  1021  2018-10-01 23:13:51 
1089  217  145  60  1021  2018-10-02 00:20:45 
1090  193  151  62  1026  2018-10-02 08:09:03 
1091  201  158  60  1026  2018-10-02 09:15:57 
1092  205  178  55  1027  2018-10-02 10:22:52 
1093  213  176  53  1028  2018-10-02 11:29:46 
1094  223  175  52  1028  2018-10-02 12:36:41 
1095  228  178  50  1028  2018-10-02 13:43:35 
1096  228  174  50  1029  2018-10-02 14:24:39 
1097  235  177  46  1028  2018-10-02 15:31:34 
1098  238  176  45  1028  2018-10-02 16:38:29 
1099  221  160  47  1028  2018-10-02 17:45:24 
1100  223  147  50  1029  2018-10-02 18:52:18 
1101  211  141  52  1029  2018-10-02 19:59:13 
1102  218  141  51  1031  2018-10-02 21:06:07 
1103  218  138  51  1031  2018-10-02 22:13:02 
1104  218  134  51  1030  2018-10-02 23:19:56 
1105  201  137  52  1030  2018-10-03 00:26:51 
1106  203  133  52  1031  2018-10-03 01:33:45 
1107  192  133  52  1031  2018-10-03 02:40:40 
1108  184  131  53  1030  2018-10-03 03:47:34 
1109  188  126  53  1031  2018-10-03 04:54:28 
1110  189  131  53  1032  2018-10-03 06:01:22 
1111  190  126  53  1031  2018-10-03 07:08:17 
1112  179  143  53  1032  2018-10-03 08:15:11 
1113  201  155  53  1031  2018-10-03 09:22:05 
1114  196  169  54  1033  2018-10-03 10:29:00 
1115  222  183  53  1030  2018-10-03 11:35:54 
1116  209  196  56  1030  2018-10-03 12:42:49 
1117  230  195  57  1029  2018-10-03 13:49:43 
1118  229  189  56  1029  2018-10-03 14:56:38 
1119  242  183  55  1028  2018-10-03 16:03:33 
1120  231  170  55  1028  2018-10-03 17:10:28 
1121  229  158  55  1029  2018-10-03 18:17:22 
1122  235  153  55  1029  2018-10-03 19:24:17 
1123  226  151  55  1028  2018-10-03 20:31:11 
1124  248  145  51  1028  2018-10-03 21:38:06 
1125  249  137  47  1028  2018-10-03 22:45:01 
1126  221  134  54  1028  2018-10-03 23:51:55 
1127  206  118  60  1027  2018-10-04 00:58:50 
1128  196  117  61  1026  2018-10-04 02:05:44 
1129  190  114  62  1025  2018-10-04 03:12:38 
1130  182  100  62  1025  2018-10-04 04:19:33 
1131  178  97  63  1024  2018-10-04 05:26:26 
1132  185  101  64  1025  2018-10-04 06:33:20 
1133  179  132  64  1026  2018-10-04 07:40:14 
1134  180  174  65  1024  2018-10-04 08:47:09 
1135  218  194  57  1025  2018-10-04 09:54:03 
1136  227  211  52  1025  2018-10-04 11:00:57 
1137  222  226  51  1023  2018-10-04 12:07:52 
1138  240  225  50  1022  2018-10-04 13:14:46 
1139  249  216  52  1022  2018-10-04 14:21:41 
1140  256  209  52  1022  2018-10-04 15:28:36 
1141  256  208  53  1021  2018-10-04 16:35:30 
1142  242  191  54  1021  2018-10-04 17:42:25 
1143  239  182  56  1020  2018-10-04 18:49:20 
1144  259  178  54  1021  2018-10-04 19:56:15 
1145  253  162  54  1022  2018-10-04 21:03:10 
1146  239  166  56  1021  2018-10-04 22:10:05 
1147  231  157  61  1020  2018-10-04 23:16:59 
1148  210  143  62  1019  2018-10-05 00:23:53 
1149  212  145  63  1019  2018-10-05 01:30:48 
1150  203  138  64  1019  2018-10-05 02:37:42 
1151  199  133  64  1019  2018-10-05 03:18:45 
1152  200  120  65  1018  2018-10-05 04:25:39 
1153  192  114  65  1017  2018-10-05 05:32:34 
1154  189  131  66  1019  2018-10-05 06:39:28 
1155  196  136  70  1019  2018-10-05 07:46:22 
1156  212  183  70  1019  2018-10-05 08:53:16 
1157  205  207  67  1018  2018-10-05 10:00:10 
1158  221  236  65  1018  2018-10-05 11:07:05 
1159  234  237  63  1018  2018-10-05 12:14:00 
1160  241  234  62  1017  2018-10-05 13:20:54 
1161  246  234  61  1017  2018-10-05 14:27:49 
1162  270  243  57  1017  2018-10-05 15:34:43 
1163  260  213  62  1017  2018-10-05 16:41:38 
1164  247  196  63  1017  2018-10-05 17:48:33 
1165  246  188  65  1018  2018-10-05 18:55:27 
1166  241  180  67  1018  2018-10-05 20:02:22 
1167  252  168  66  1019  2018-10-05 21:09:16 
1168  245  172  65  1019  2018-10-05 22:16:11 
1169  240  171  66  1018  2018-10-05 23:23:05 
1170  221  167  67  1019  2018-10-06 00:30:00 
1171  226  158  70  1017  2018-10-06 01:36:54 
1172  222  163  71  1017  2018-10-06 02:43:49 
1173  210  164  71  1016  2018-10-06 03:50:43 
1174  210  163  71  1017  2018-10-06 04:57:38 
1175  209  169  70  1018  2018-10-06 06:04:32 
1176  206  171  70  1017  2018-10-06 07:11:26 
1177  209  188  70  1017  2018-10-06 08:18:21 
1178  221  201  66  1018  2018-10-06 09:25:16 
1179  225  205  66  1018  2018-10-06 10:32:10 
1180  238  222  64  1018  2018-10-06 11:39:05 
1181  244  230  63  1016  2018-10-06 12:45:59 
1182  264  224  62  1017  2018-10-06 13:52:54 
1183  268  217  61  1017  2018-10-06 14:59:49 
1184  268  218  62  1016  2018-10-06 16:06:43 
1185  254  204  63  1016  2018-10-06 17:13:38 
1186  250  192  63  1017  2018-10-06 18:20:33 
1187  252  184  64  1016  2018-10-06 19:27:28 
1188  245  182  64  1016  2018-10-06 20:34:22 
1189  242  162  64  1017  2018-10-06 21:41:17 
1190  230  181  65  1017  2018-10-06 22:48:11 
1191  226  171  66  1018  2018-10-06 23:55:06 
1192  223  170  66  1016  2018-10-07 01:02:00 
1193  224  160  66  1015  2018-10-07 02:08:54 
1194  218  160  66  1014  2018-10-07 03:15:49 
1195  215  168  66  1015  2018-10-07 04:22:43 
1196  213  170  66  1015  2018-10-07 05:29:38 
1197  211  160  66  1015  2018-10-07 06:36:32 
1198  205  175  66  1015  2018-10-07 07:43:27 
1199  217  207  66  1015  2018-10-07 08:50:21 
1200  224  230  65  1016  2018-10-07 09:57:15 
1201  234  255  65  1015  2018-10-07 11:04:10 
1202  252  256  64  1016  2018-10-07 12:11:04 
1203  266  265  62  1014  2018-10-07 13:17:59 
1204  275  269  60  1013  2018-10-07 14:24:54 
1205  280  259  57  1013  2018-10-07 15:31:49 
1206  279  251  57  1012  2018-10-07 16:12:52 
1207  276  219  60  1013  2018-10-07 17:19:47 
1208  268  208  62  1013  2018-10-07 18:26:41 
1209  258  204  63  1014  2018-10-07 19:33:36 
1210  259  198  64  1013  2018-10-07 20:40:30 
1211  257  186  64  1014  2018-10-07 21:47:25 
1212  243  176  64  1013  2018-10-07 22:54:20 
1213  241  180  64  1013  2018-10-08 00:01:15 
1214  241  175  65  1013  2018-10-08 01:08:09 
1215  227  194  70  1014  2018-10-08 08:56:28 
1216  236  230  65  1013  2018-10-08 10:03:22 
1217  251  261  63  1013  2018-10-08 11:10:17 
1218  276  301  57  1012  2018-10-08 12:17:11 
1219  283  275  57  1012  2018-10-08 13:24:06 
1220  289  262  56  1012  2018-10-08 14:31:00 
1221  301  278  55  1013  2018-10-08 15:37:55 
1222  287  275  55  1012  2018-10-08 16:44:50 
1223  279  243  56  1011  2018-10-08 17:51:45 
1224  272  214  56  1012  2018-10-08 18:58:39 
1225  262  189  57  1012  2018-10-08 20:05:34 
1226  253  182  57  1012  2018-10-08 21:12:28 
1227  258  168  57  1013  2018-10-08 22:19:22 
1228  244  159  60  1013  2018-10-08 23:26:17 
1229  240  152  60  1013  2018-10-09 00:33:11 
1230  233  150  60  1012  2018-10-09 01:40:06 
1231  233  149  61  1013  2018-10-09 02:47:01 
1232  226  150  61  1012  2018-10-09 03:53:55 
1233  227  150  62  1013  2018-10-09 05:00:50 
1234  215  150  62  1014  2018-10-09 06:07:44 
1235  215  158  62  1014  2018-10-09 07:14:39 
1236  227  168  63  1015  2018-10-09 08:21:33 
1237  226  185  64  1015  2018-10-09 09:28:28 
1238  272  217  54  1012  2018-10-09 16:09:51 
1239  265  197  55  1013  2018-10-09 17:16:46 
1240  258  180  56  1012  2018-10-09 18:23:40 
1241  256  171  57  1014  2018-10-09 19:30:34 
1242  255  172  55  1014  2018-10-09 20:37:29 
1243  242  171  61  1015  2018-10-09 21:44:23 
1244  233  170  63  1014  2018-10-09 22:51:18 
1245  235  166  63  1014  2018-10-09 23:58:12 
1246  225  167  64  1013  2018-10-10 01:05:07 
1247  225  156  64  1014  2018-10-10 02:12:02 
1248  225  164  64  1013  2018-10-10 03:18:56 
1249  227  172  65  1014  2018-10-10 04:25:50 
1250  227  168  65  1015  2018-10-10 05:06:54 
1251  230  169  65  1015  2018-10-10 06:13:48 
1252  222  176  72  1015  2018-10-10 07:20:42 
1253  234  184  72  1017  2018-10-10 08:27:37 
1254  246  194  70  1016  2018-10-10 09:34:32 
1255  247  204  66  1016  2018-10-10 10:41:26 
1256  251  213  65  1016  2018-10-10 11:48:21 
1257  245  220  64  1017  2018-10-10 12:55:16 
1258  255  232  63  1015  2018-10-10 14:02:11 
1259  269  218  62  1014  2018-10-10 15:09:05 
1260  274  218  62  1014  2018-10-10 16:16:00 
1261  264  195  62  1014  2018-10-10 17:22:54 
1262  266  181  62  1015  2018-10-10 18:29:48 
1263  257  176  61  1016  2018-10-10 19:36:43 
1264  249  172  61  1016  2018-10-10 20:43:37 
1265  249  170  62  1016  2018-10-10 21:50:32 
1266  236  175  67  1015  2018-10-10 22:57:26 
1267  236  171  67  1015  2018-10-11 00:04:21 
1268  235  175  67  1017  2018-10-11 01:11:15 
1269  231  173  67  1017  2018-10-11 02:18:10 
1270  223  166  67  1016  2018-10-11 03:25:04 
1271  224  155  66  1016  2018-10-11 04:31:58 
1272  223  153  65  1017  2018-10-11 05:38:53 
1273  211  160  65  1018  2018-10-11 06:45:47 
1274  211  169  65  1018  2018-10-11 07:52:42 
1275  221  180  60  1018  2018-10-11 08:59:36 
1276  237  196  54  1019  2018-10-11 10:06:31 
1277  253  204  54  1021  2018-10-11 11:13:25 
1278  259  196  54  1020  2018-10-11 12:20:20 
1279  262  218  53  1020  2018-10-11 13:27:15 
1280  264  227  52  1020  2018-10-11 14:34:09 
1281  265  224  54  1020  2018-10-11 15:41:04 
1282  261  187  56  1020  2018-10-11 16:47:59 
1283  258  175  55  1021  2018-10-11 17:54:54 
1284  247  166  56  1021  2018-10-11 19:01:48 
1285  242  160  57  1022  2018-10-11 20:08:43 
1286  244  156  60  1023  2018-10-11 21:15:38 
1287  230  153  60  1023  2018-10-11 22:22:32 
1288  227  144  61  1024  2018-10-11 23:29:26 
1289  228  147  62  1024  2018-10-12 00:36:21 
1290  220  148  62  1024  2018-10-12 01:43:15 
1291  210  144  62  1023  2018-10-12 02:50:10 
1292  209  140  62  1023  2018-10-12 03:57:04 
1293  205  144  62  1023  2018-10-12 05:03:58 
1294  216  146  61  1024  2018-10-12 06:10:52 
1295  201  152  57  1025  2018-10-12 07:17:47 
1296  217  159  54  1025  2018-10-12 08:24:41 
1297  218  172  52  1025  2018-10-12 09:31:36 
1298  232  184  51  1025  2018-10-12 10:38:30 
1299  239  190  50  1024  2018-10-12 11:45:25 
1300  232  204  50  1024  2018-10-12 12:52:19 
1301  248  204  53  1023  2018-10-12 13:59:14 
1302  250  196  54  1022  2018-10-12 15:06:08 
1303  252  211  50  1021  2018-10-12 16:13:03 
1304  247  191  51  1021  2018-10-12 17:19:58 
1305  242  182  52  1020  2018-10-12 18:01:01 
1306  231  168  54  1020  2018-10-12 19:07:56 
1307  239  159  54  1020  2018-10-12 20:14:50 
1308  241  154  54  1021  2018-10-12 21:21:45 
1309  223  153  55  1021  2018-10-12 22:28:40 
1310  222  151  56  1021  2018-10-12 23:35:34 
1311  205  150  57  1020  2018-10-13 00:42:28 
1312  208  149  57  1019  2018-10-13 01:49:23 
1313  200  146  57  1019  2018-10-13 02:56:17 
1314  209  148  57  1018  2018-10-13 04:03:12 
1315  209  143  60  1017  2018-10-13 05:10:06 
1316  194  141  60  1017  2018-10-13 06:17:00 
1317  200  151  60  1016  2018-10-13 07:23:54 
1318  201  175  57  1015  2018-10-13 08:30:49 
1319  218  204  53  1014  2018-10-13 09:37:43 
1320  233  218  44  1014  2018-10-13 10:44:37 
1321  250  235  42  1014  2018-10-13 11:51:32 
1322  253  264  36  1012  2018-10-13 12:58:26 
1323  276  257  33  1011  2018-10-13 14:05:21 
1324  285  257  36  1011  2018-10-13 15:12:15 
1325  292  241  42  1010  2018-10-13 16:19:10 
1326  285  225  44  1009  2018-10-13 17:26:05 
1327  266  207  45  1009  2018-10-13 18:33:00 
1328  258  192  50  1009  2018-10-13 19:39:54 
1329  255  183  50  1008  2018-10-13 20:46:49 
1330  255  168  52  1009  2018-10-13 21:53:44 
1331  246  164  53  1008  2018-10-13 23:00:38 
1332  234  153  54  1009  2018-10-14 00:07:34 
1333  234  144  54  1008  2018-10-14 01:14:29 
1334  225  155  54  1008  2018-10-14 02:21:24 
1335  219  140  55  1009  2018-10-14 03:28:18 
1336  215  143  55  1009  2018-10-14 04:35:13 
1337  212  149  56  1011  2018-10-14 05:42:07 
1338  212  156  57  1011  2018-10-14 06:49:02 
1339  216  166  60  1013  2018-10-14 07:55:56 
1340  222  180  57  1012  2018-10-14 09:02:51 
1341  224  196  57  1012  2018-10-14 10:09:45 
1342  231  217  55  1013  2018-10-14 11:16:40 
1343  242  209  55  1014  2018-10-14 12:23:35 
1344  245  237  55  1013  2018-10-14 13:30:29 
1345  250  233  52  1014  2018-10-14 14:37:25 
1346  261  221  52  1013  2018-10-14 15:44:20 
1347  246  193  54  1014  2018-10-14 16:51:15 
1348  257  188  56  1015  2018-10-14 17:58:09 
1349  238  174  57  1015  2018-10-14 19:05:04 
1350  244  175  57  1016  2018-10-14 20:11:59 
1351  233  175  60  1017  2018-10-14 21:18:53 
1352  232  169  61  1018  2018-10-14 22:25:48 
1353  234  160  62  1017  2018-10-14 23:32:42 
1354  234  163  62  1017  2018-10-15 00:39:36 
1355  223  164  62  1017  2018-10-15 01:46:31 
1356  225  163  63  1017  2018-10-15 02:53:25 
1357  215  157  63  1018  2018-10-15 04:00:20 
1358  218  154  63  1019  2018-10-15 05:07:14 
1359  217  148  64  1019  2018-10-15 06:14:08 
1360  209  147  64  1020  2018-10-15 06:55:12 
1361  215  176  63  1021  2018-10-15 08:02:06 
1362  216  185  61  1020  2018-10-15 09:09:00 
1363  227  200  57  1020  2018-10-15 10:15:55 
1364  235  200  56  1020  2018-10-15 11:22:50 
1365  255  218  56  1021  2018-10-15 12:29:44 
1366  257  221  54  1021  2018-10-15 13:36:39 
1367  256  196  55  1022  2018-10-15 14:43:34 
1368  258  182  57  1022  2018-10-15 15:50:28 
1369  242  182  56  1021  2018-10-15 16:57:23 
1370  249  175  57  1022  2018-10-15 18:04:17 
1371  244  164  56  1022  2018-10-15 19:11:12 
1372  232  156  56  1023  2018-10-15 20:18:07 
1373  227  151  61  1023  2018-10-15 21:25:01 
1374  215  137  62  1023  2018-10-15 22:31:55 
1375  217  136  62  1023  2018-10-15 23:38:49 
1376  211  128  62  1022  2018-10-16 00:45:44 
1377  199  125  62  1022  2018-10-16 01:52:38 
1378  202  120  62  1021  2018-10-16 02:59:33 
1379  190  121  62  1022  2018-10-16 04:06:27 
1380  195  123  62  1021  2018-10-16 05:13:21 
1381  200  135  63  1022  2018-10-16 06:20:16 
1382  193  148  63  1022  2018-10-16 07:27:10 
1383  196  160  64  1022  2018-10-16 08:34:04 
1384  214  178  61  1022  2018-10-16 09:40:58 
1385  228  175  61  1022  2018-10-16 10:47:53 
1386  224  181  60  1022  2018-10-16 11:54:47 
1387  230  206  55  1021  2018-10-16 13:01:42 
1388  247  208  54  1020  2018-10-16 14:08:36 
1389  252  201  55  1021  2018-10-16 15:15:32 
1390  252  186  57  1021  2018-10-16 16:22:27 
1391  246  175  60  1021  2018-10-16 17:29:21 
1392  238  163  60  1021  2018-10-16 18:36:16 
1393  232  156  62  1022  2018-10-16 19:43:10 
1394  234  158  62  1023  2018-10-16 20:50:04 
1395  225  157  62  1023  2018-10-16 21:56:59 
1396  219  154  63  1022  2018-10-16 23:03:53 
1397  210  150  64  1021  2018-10-17 00:10:47 
1398  212  145  64  1021  2018-10-17 01:17:42 
1399  210  139  64  1020  2018-10-17 02:24:36 
1400  200  124  64  1020  2018-10-17 03:31:30 
1401  201  122  64  1020  2018-10-17 04:38:25 
1402  198  126  64  1020  2018-10-17 05:45:19 
1403  191  140  65  1021  2018-10-17 06:52:13 
1404  202  160  65  1021  2018-10-17 07:59:07 
1405  222  175  66  1022  2018-10-17 09:06:01 
1406  211  191  64  1021  2018-10-17 10:12:56 
1407  217  199  64  1020  2018-10-17 11:19:50 
1408  232  207  64  1019  2018-10-17 12:26:44 
1409  233  216  64  1019  2018-10-17 13:33:39 
1410  241  215  63  1019  2018-10-17 14:40:33 
1411  247  208  60  1018  2018-10-17 15:47:28 
1412  246  200  60  1017  2018-10-17 16:54:22 
1413  245  185  61  1017  2018-10-17 18:01:16 
1414  244  168  57  1017  2018-10-17 19:08:11 
1415  231  167  62  1018  2018-10-17 19:49:14 
1416  225  160  62  1018  2018-10-17 20:56:09 
1417  226  152  62  1016  2018-10-17 22:03:03 
1418  219  149  63  1016  2018-10-17 23:09:58 
1419  215  151  63  1016  2018-10-18 00:16:52 
1420  210  148  64  1015  2018-10-18 01:23:47 
1421  213  150  64  1014  2018-10-18 02:30:41 
1422  212  137  64  1014  2018-10-18 03:37:35 
1423  204  137  64  1013  2018-10-18 04:44:30 
1424  203  139  64  1014  2018-10-18 05:51:24 
1425  204  138  65  1015  2018-10-18 06:58:18 
1426  209  175  65  1015  2018-10-18 08:05:12 
1427  235  204  65  1015  2018-10-18 09:12:07 
1428  231  230  54  1015  2018-10-18 10:19:01 
1429  247  243  51  1016  2018-10-18 11:25:56 
1430  264  252  46  1013  2018-10-18 12:32:50 
1431  263  241  44  1013  2018-10-18 13:39:45 
1432  270  250  43  1013  2018-10-18 14:46:40 
1433  260  223  45  1013  2018-10-18 15:53:34 
1434  256  215  51  1013  2018-10-18 17:00:29 
1435  257  189  55  1015  2018-10-18 18:07:24 
1436  260  185  57  1016  2018-10-18 19:14:19 
1437  249  174  60  1016  2018-10-18 20:21:13 
1438  247  189  61  1017  2018-10-18 21:28:08 
1439  240  175  62  1018  2018-10-18 22:35:02 
1440  230  170  63  1018  2018-10-18 23:41:57 
1441  239  172  63  1018  2018-10-19 00:48:51 
1442  226  166  63  1019  2018-10-19 01:55:46 
1443  232  155  62  1018  2018-10-19 03:02:41 
1444  227  158  62  1019  2018-10-19 04:09:35 
1445  219  151  61  1020  2018-10-19 05:16:29 
1446  214  144  62  1021  2018-10-19 06:23:24 
1447  213  171  63  1022  2018-10-19 07:30:18 
1448  224  170  61  1022  2018-10-19 08:37:12 
1449  229  191  56  1024  2018-10-19 09:44:07 
1450  234  191  53  1025  2018-10-19 10:51:02 
1451  240  202  50  1024  2018-10-19 11:57:56 
1452  252  209  51  1024  2018-10-19 13:04:51 
1453  255  206  45  1023  2018-10-19 14:11:46 
1454  263  210  50  1024  2018-10-19 15:18:40 
1455  264  207  50  1025  2018-10-19 16:25:35 
1456  254  178  51  1024  2018-10-19 17:32:30 
1457  246  163  53  1025  2018-10-19 18:39:24 
1458  244  162  55  1026  2018-10-19 19:46:19 
1459  236  160  56  1027  2018-10-19 20:53:14 
1460  234  157  57  1027  2018-10-19 22:00:09 
1461  226  158  60  1027  2018-10-19 23:07:03 
1462  218  145  61  1027  2018-10-20 00:13:58 
1463  218  147  62  1027  2018-10-20 01:20:52 
1464  218  153  62  1027  2018-10-20 02:27:47 
1465  213  156  62  1026  2018-10-20 03:34:41 
1466  210  157  62  1026  2018-10-20 04:41:36 
1467  216  156  62  1027  2018-10-20 05:48:30 
1468  216  159  61  1026  2018-10-20 06:55:24 
1469  226  171  60  1027  2018-10-20 08:02:18 
1470  211  184  57  1027  2018-10-20 08:43:22 
1471  229  201  56  1027  2018-10-20 09:50:16 
1472  226  228  54  1027  2018-10-20 10:57:11 
1473  241  239  50  1025  2018-10-20 12:04:05 
1474  250  248  43  1025  2018-10-20 13:11:01 
1475  267  248  47  1024  2018-10-20 14:17:56 
1476  277  239  51  1024  2018-10-20 15:24:50 
1477  285  248  45  1023  2018-10-20 16:31:45 
1478  275  219  45  1024  2018-10-20 17:38:39 
1479  253  196  45  1023  2018-10-20 18:45:34 
1480  250  177  50  1024  2018-10-20 19:52:29 
1481  253  164  50  1025  2018-10-20 20:59:24 
1482  236  163  51  1026  2018-10-20 22:06:18 
1483  239  156  52  1025  2018-10-20 23:13:13 
1484  233  157  54  1025  2018-10-21 00:20:07 
1485  225  155  54  1024  2018-10-21 01:27:02 
1486  219  153  55  1023  2018-10-21 02:33:57 
1487  224  148  56  1024  2018-10-21 03:40:51 
1488  211  146  56  1024  2018-10-21 04:47:46 
1489  213  151  56  1023  2018-10-21 05:54:40 
1490  212  156  56  1023  2018-10-21 07:01:34 
1491  212  174  55  1024  2018-10-21 08:08:28 
1492  235  195  53  1023  2018-10-21 09:15:23 
1493  226  211  50  1023  2018-10-21 10:22:17 
1494  250  233  46  1022  2018-10-21 11:29:12 
1495  260  245  41  1022  2018-10-21 12:36:07 
1496  271  271  36  1021  2018-10-21 13:43:01 
1497  291  270  35  1019  2018-10-21 14:49:56 
1498  286  268  34  1018  2018-10-21 15:56:51 
1499  271  192  45  1018  2018-10-21 20:24:28 
1500  258  183  45  1018  2018-10-21 21:31:23 
1501  250  161  46  1016  2018-10-21 23:01:23 
1502  243  158  50  1016  2018-10-22 00:08:17 
1503  241  150  50  1015  2018-10-22 01:15:12 
1504  235  156  51  1014  2018-10-22 02:22:06 
1505  233  120  52  1015  2018-10-22 03:29:01 
1506  223  136  53  1015  2018-10-22 04:35:56 
1507  225  131  53  1015  2018-10-22 05:42:50 
1508  221  141  55  1014  2018-10-22 06:49:45 
1509  220  185  55  1016  2018-10-22 07:56:39 
1510  250  219  55  1016  2018-10-22 09:03:34 
1511  240  235  54  1016  2018-10-22 10:10:28 
1512  255  263  51  1015  2018-10-22 11:17:23 
1513  278  309  46  1014  2018-10-22 12:24:18 
1514  300  316  37  1014  2018-10-22 13:31:13 
1515  321  342  36  1013  2018-10-22 15:37:02 
1516  311  310  34  1013  2018-10-22 16:43:54 
1517  307  260  37  1013  2018-10-22 17:50:48 
1518  299  247  43  1014  2018-10-22 18:57:43 
1519  289  235  51  1014  2018-10-22 20:04:38 
1520  285  217  51  1015  2018-10-22 21:11:33 
1521  281  215  53  1016  2018-10-22 22:18:28 
1522  280  200  53  1017  2018-10-22 23:25:23 
1523  269  203  53  1017  2018-10-23 00:32:17 
1524  269  202  53  1015  2018-10-23 01:39:13 
1525  273  197  54  1015  2018-10-23 02:46:08 
1526  263  196  55  1016  2018-10-23 03:53:03 
1527  265  197  55  1016  2018-10-23 04:59:57 
1528  251  198  56  1017  2018-10-23 06:06:52 
1529  261  241  60  1017  2018-10-23 07:13:47 
1530  264  280  53  1018  2018-10-23 08:20:42 
1531  283  303  51  1017  2018-10-23 09:27:37 
1532  313  328  45  1017  2018-10-23 10:34:31 
1533  317  346  45  1017  2018-10-23 11:41:26 
1534  322  336  45  1017  2018-10-23 12:48:22 
1535  330  357  43  1016  2018-10-23 13:55:17 
1536  341  352  41  1016  2018-10-23 15:02:12 
1537  344  353  37  1014  2018-10-23 16:09:07 
1538  344  333  34  1015  2018-10-23 17:16:02 
1539  338  305  35  1015  2018-10-23 18:22:57 
1540  326  278  41  1017  2018-10-23 19:29:52 
1541  318  272  41  1018  2018-10-23 20:36:47 
1542  315  243  45  1019  2018-10-23 21:43:42 
1543  306  226  45  1019  2018-10-23 22:50:37 
1544  309  226  46  1019  2018-10-23 23:57:32 
1545  300  224  47  1018  2018-10-24 01:04:27 
1546  294  205  51  1018  2018-10-24 02:11:22 
1547  296  211  51  1018  2018-10-24 03:18:17 
1548  290  196  52  1017  2018-10-24 04:25:12 
1549  277  195  53  1017  2018-10-24 05:32:07 
1550  275  217  51  1018  2018-10-24 06:39:02 
1551  329  342  37  1017  2018-10-24 12:54:39 
1552  340  347  35  1016  2018-10-24 14:01:31 
1553  348  362  33  1016  2018-10-24 15:08:26 
1554  354  296  34  1016  2018-10-24 16:15:21 
1555  347  261  35  1017  2018-10-24 17:22:16 
1556  312  239  37  1017  2018-10-24 18:29:10 
1557  297  233  41  1018  2018-10-24 19:36:05 
1558  303  229  43  1018  2018-10-24 20:43:00 
1559  300  225  43  1018  2018-10-24 21:49:55 
1560  293  222  44  1018  2018-10-24 22:56:50 
1561  294  211  45  1017  2018-10-25 00:03:45 
1562  294  200  46  1017  2018-10-25 01:10:40 
1563  286  194  47  1016  2018-10-25 02:17:35 
1564  273  196  51  1015  2018-10-25 03:24:30 
1565  269  182  52  1016  2018-10-25 04:31:24 
1566  270  175  53  1017  2018-10-25 05:38:19 
1567  266  181  55  1018  2018-10-25 06:45:14 
1568  257  211  57  1018  2018-10-25 07:52:08 
1569  263  237  55  1019  2018-10-25 08:59:03 
1570  286  267  55  1019  2018-10-25 10:05:58 
1571  301  285  52  1019  2018-10-25 11:12:53 
1572  307  282  51  1018  2018-10-25 12:19:48 
1573  310  282  51  1018  2018-10-25 13:26:43 
1574  311  256  53  1018  2018-10-25 14:33:38 
1575  311  256  53  1018  2018-10-25 15:40:34 
1576  281  223  57  1019  2018-10-25 16:47:28 
1577  272  204  63  1020  2018-10-25 17:54:23 
1578  258  191  66  1021  2018-10-25 19:01:17 
1579  268  190  63  1021  2018-10-25 20:08:12 
1580  253  184  67  1022  2018-10-25 21:15:07 
1581  262  171  63  1021  2018-10-25 22:22:01 
1582  256  181  63  1021  2018-10-25 23:28:56 
1583  258  182  63  1021  2018-10-26 00:35:51 
1584  259  181  63  1020  2018-10-26 01:42:46 
1585  250  180  64  1020  2018-10-26 02:49:41 
1586  253  182  65  1021  2018-10-26 03:56:35 
1587  252  180  65  1021  2018-10-26 05:03:30 
1588  255  182  65  1021  2018-10-26 06:10:24 
1589  244  189  67  1020  2018-10-26 07:17:19 
1590  235  202  71  1020  2018-10-26 08:24:14 
1591  251  217  70  1021  2018-10-26 09:31:08 
1592  261  222  71  1022  2018-10-26 10:38:03 
1593  264  230  70  1021  2018-10-26 11:44:58 
1594  255  237  67  1020  2018-10-26 12:51:53 
1595  270  232  65  1020  2018-10-26 13:58:47 
1596  279  233  63  1020  2018-10-26 15:05:42 
1597  285  231  62  1020  2018-10-26 16:12:37 
1598  283  221  62  1019  2018-10-26 17:19:31 
1599  275  194  63  1020  2018-10-26 18:26:26 
1600  270  196  63  1020  2018-10-26 19:33:20 
1601  266  195  64  1020  2018-10-26 20:40:15 
1602  268  193  64  1019  2018-10-26 21:47:10 
1603  266  197  64  1018  2018-10-26 22:54:04 
1604  254  175  65  1019  2018-10-27 00:00:59 
1605  248  174  66  1017  2018-10-27 01:48:58 
1606  246  172  66  1017  2018-10-27 02:55:52 
1607  240  168  67  1016  2018-10-27 04:02:47 
1608  243  163  67  1017  2018-10-27 05:09:41 
1609  235  161  70  1018  2018-10-27 06:16:36 
1610  232  183  72  1018  2018-10-27 07:23:30 
1611  239  211  72  1017  2018-10-27 08:30:25 
1612  250  224  71  1017  2018-10-27 09:37:19 
1613  256  244  67  1018  2018-10-27 10:44:14 
1614  269  247  66  1017  2018-10-27 11:51:08 
1615  279  278  62  1016  2018-10-27 12:58:03 
1616  305  294  57  1016  2018-10-27 14:04:58 
1617  314  298  56  1016  2018-10-27 15:11:52 
1618  312  307  54  1014  2018-10-27 16:18:47 
1619  319  273  52  1015  2018-10-27 17:25:42 
1620  298  241  54  1015  2018-10-27 18:32:37 
1621  296  219  60  1015  2018-10-27 19:39:32 
1622  283  214  61  1017  2018-10-27 20:46:26 
1623  283  196  61  1016  2018-10-27 21:53:21 
1624  274  187  62  1016  2018-10-27 23:00:16 
1625  274  180  63  1015  2018-10-28 00:07:11 
1626  243  192  70  1014  2018-10-28 07:55:29 
1627  255  221  71  1014  2018-10-28 09:02:24 
1628  260  241  67  1014  2018-10-28 10:09:19 
1629  268  233  65  1014  2018-10-28 11:16:14 
1630  272  233  64  1014  2018-10-28 12:23:08 
1631  290  244  64  1012  2018-10-28 13:30:02 
1632  291  247  62  1012  2018-10-28 14:36:57 
1633  281  231  61  1012  2018-10-28 15:43:52 
1634  285  230  62  1012  2018-10-28 16:50:46 
1635  284  208  63  1011  2018-10-28 17:57:41 
1636  279  188  64  1012  2018-10-28 19:04:35 
1637  268  189  65  1011  2018-10-28 20:11:30 
1638  262  177  66  1011  2018-10-28 21:18:25 
1639  264  174  67  1012  2018-10-28 22:25:19 
1640  259  172  70  1009  2018-10-28 23:32:14 
1641  246  173  71  1010  2018-10-29 00:39:09 
1642  249  168  72  1008  2018-10-29 01:46:03 
1643  245  169  74  1007  2018-10-29 02:52:58 
1644  246  171  74  1007  2018-10-29 03:59:52 
1645  244  168  75  1005  2018-10-29 05:06:47 
1646  241  173  74  1005  2018-10-29 06:13:41 
1647  235  171  74  1006  2018-10-29 07:20:36 
1648  230  181  75  1006  2018-10-29 08:27:30 
1649  259  212  73  1004  2018-10-29 09:34:25 
1650  245  223  71  1003  2018-10-29 10:41:19 
1651  248  208  67  1006  2018-10-29 11:48:15 
1652  265  231  63  1005  2018-10-29 12:55:09 
1653  268  253  60  1004  2018-10-29 14:02:04 
1654  272  260  56  1004  2018-10-29 14:43:07 
1655  281  233  54  1003  2018-10-29 15:50:02 
1656  276  230  53  1003  2018-10-29 16:56:57 
1657  262  194  56  1003  2018-10-29 18:03:51 
1658  262  183  61  1006  2018-10-29 19:10:46 
1659  263  175  63  1005  2018-10-29 20:17:40 
1660  263  181  63  1005  2018-10-29 21:24:35 
1661  258  176  65  1005  2018-10-29 22:31:30 
1662  246  175  64  1005  2018-10-29 23:38:24 
1663  231  147  65  1008  2018-10-30 00:45:19 
1664  234  135  66  1011  2018-10-30 01:52:14 
1665  223  119  65  1012  2018-10-30 02:59:08 
1666  220  135  64  1014  2018-10-30 04:06:03 
1667  225  111  65  1014  2018-10-30 05:12:57 
1668  218  110  66  1016  2018-10-30 06:19:51 
1669  216  119  65  1017  2018-10-30 07:26:45 
1670  218  147  62  1018  2018-10-30 08:33:40 
1671  217  150  62  1019  2018-10-30 09:40:34 
1672  225  142  61  1020  2018-10-30 10:47:29 
1673  227  160  61  1020  2018-10-30 11:54:23 
1674  230  174  56  1021  2018-10-30 13:01:18 
1675  234  168  53  1020  2018-10-30 14:08:12 
1676  232  165  52  1020  2018-10-30 15:15:07 
1677  233  155  51  1020  2018-10-30 16:22:01 
1678  235  145  51  1021  2018-10-30 17:28:56 
1679  233  130  52  1021  2018-10-30 18:35:50 
1680  229  123  53  1022  2018-10-30 19:42:45 
1681  215  119  54  1022  2018-10-30 20:49:39 
1682  214  113  55  1023  2018-10-30 21:56:34 
1683  209  108  56  1022  2018-10-30 23:03:28 
1684  196  105  57  1023  2018-10-31 00:10:22 
1685  194  99  60  1021  2018-10-31 01:17:16 
1686  195  103  61  1021  2018-10-31 02:24:10 
1687  187  100  62  1022  2018-10-31 03:31:04 
1688  196  88  62  1022  2018-10-31 04:37:56 
1689  187  84  62  1022  2018-10-31 05:44:50 
1690  190  99  66  1022  2018-10-31 06:51:43 
1691  175  128  66  1022  2018-10-31 07:58:37 
1692  180  150  63  1022  2018-10-31 09:05:31 
1693  201  168  57  1022  2018-10-31 10:12:26 
1694  234  183  45  1020  2018-10-31 16:53:48 
1695  227  154  45  1020  2018-10-31 18:00:43 
1696  218  142  46  1022  2018-10-31 19:07:38 
1697  226  136  51  1021  2018-10-31 20:14:32 
1698  225  130  52  1022  2018-10-31 21:21:27 
1699  211  126  54  1022  2018-10-31 22:28:21 
1700  206  129  56  1022  2018-10-31 23:35:15 
1701  208  137  57  1021  2018-11-01 00:42:10 
1702  202  128  57  1021  2018-11-01 01:49:04 
1703  197  116  60  1021  2018-11-01 02:55:58 
1704  201  118  60  1021  2018-11-01 03:37:02 
1705  203  117  61  1021  2018-11-01 04:43:56 
1706  193  113  62  1023  2018-11-01 05:50:50 
1707  188  131  62  1023  2018-11-01 06:57:44 
1708  190  150  62  1023  2018-11-01 08:04:39 
1709  194  165  61  1023  2018-11-01 09:11:33 
1710  215  171  57  1023  2018-11-01 10:18:27 
1711  227  179  57  1024  2018-11-01 11:25:22 
1712  224  187  53  1022  2018-11-01 12:32:16 
1713  226  194  53  1022  2018-11-01 13:39:10 
1714  226  178  53  1022  2018-11-01 14:46:05 
1715  233  180  51  1021  2018-11-01 15:53:00 
1716  229  186  51  1021  2018-11-01 16:59:54 
1717  225  158  52  1021  2018-11-01 18:06:49 
1718  224  145  54  1021  2018-11-01 19:13:43 
1719  225  145  54  1021  2018-11-01 20:20:38 
1720  230  144  55  1023  2018-11-01 21:27:33 
1721  215  139  57  1023  2018-11-01 22:34:27 
1722  216  136  57  1022  2018-11-01 23:41:21 
1723  208  142  57  1022  2018-11-02 00:48:16 
1724  207  141  57  1021  2018-11-02 01:55:10 
1725  205  137  60  1020  2018-11-02 03:02:04 
1726  193  131  60  1020  2018-11-02 04:08:58 
1727  198  137  60  1019  2018-11-02 05:15:53 
1728  190  136  60  1019  2018-11-02 06:22:47 
1729  201  157  61  1020  2018-11-02 07:29:42 
1730  199  182  56  1019  2018-11-02 08:36:36 
1731  212  202  52  1018  2018-11-02 09:43:30 
1732  238  238  46  1017  2018-11-02 10:50:25 
1733  243  237  44  1018  2018-11-02 11:57:20 
1734  266  259  42  1017  2018-11-02 13:04:14 
1735  277  259  36  1016  2018-11-02 14:11:09 
1736  274  246  37  1015  2018-11-02 15:18:04 
1737  270  231  41  1015  2018-11-02 16:24:58 
1738  272  218  43  1014  2018-11-02 17:31:53 
1739  253  202  46  1014  2018-11-02 18:38:48 
1740  245  188  51  1015  2018-11-02 19:45:42 
1741  237  176  54  1014  2018-11-02 20:52:37 
1742  239  167  54  1013  2018-11-02 21:59:32 
1743  240  152  55  1013  2018-11-02 23:06:26 
1744  227  145  55  1012  2018-11-03 00:13:21 
1745  227  139  56  1011  2018-11-03 01:20:16 
1746  218  135  56  1010  2018-11-03 02:27:10 
1747  217  126  57  1010  2018-11-03 03:34:04 
1748  207  122  60  1009  2018-11-03 04:40:59 
1749  209  115  60  1009  2018-11-03 05:47:53 
1750  202  146  61  1009  2018-11-03 06:54:47 
1751  213  195  63  1009  2018-11-03 08:01:41 
1752  228  221  63  1009  2018-11-03 09:08:35 
1753  238  223  63  1009  2018-11-03 10:15:29 
1754  252  251  63  1008  2018-11-03 11:22:24 
1755  258  314  54  1006  2018-11-03 12:29:19 
1756  277  322  35  1006  2018-11-03 13:36:13 
1757  286  301  34  1006  2018-11-03 14:43:08 
1758  284  291  26  1006  2018-11-03 15:50:03 
1759  303  285  30  1005  2018-11-03 16:31:06 
1760  291  249  30  1006  2018-11-03 17:38:01 
1761  274  240  34  1006  2018-11-03 18:44:55 
1762  269  214  46  1007  2018-11-03 19:51:50 
1763  260  203  50  1006  2018-11-03 20:58:45 
1764  264  207  52  1007  2018-11-03 22:05:39 
1765  263  200  50  1007  2018-11-03 23:12:34 
1766  255  190  53  1008  2018-11-04 00:19:29 
1767  249  186  54  1007  2018-11-04 01:26:24 
1768  243  179  55  1006  2018-11-04 02:33:19 
1769  246  177  55  1007  2018-11-04 03:40:13 
1770  244  174  56  1009  2018-11-04 04:47:08 
1771  242  173  56  1009  2018-11-04 05:54:03 
1772  237  185  56  1010  2018-11-04 07:00:57 
1773  236  199  57  1010  2018-11-04 08:07:51 
1774  245  199  56  1011  2018-11-04 09:14:46 
1775  252  204  55  1011  2018-11-04 10:21:41 
1776  253  207  57  1012  2018-11-04 11:28:35 
1777  250  201  60  1011  2018-11-04 12:35:30 
1778  259  211  57  1012  2018-11-04 13:42:25 
1779  257  208  55  1011  2018-11-04 14:49:19 
1780  269  225  53  1011  2018-11-04 15:56:14 
1781  257  187  54  1011  2018-11-04 17:03:09 
1782  250  168  63  1012  2018-11-04 18:10:04 
1783  249  168  62  1014  2018-11-04 19:16:59 
1784  244  164  62  1014  2018-11-04 20:23:53 
1785  246  162  62  1015  2018-11-04 21:30:48 
1786  243  153  62  1015  2018-11-04 22:37:42 
1787  232  147  63  1015  2018-11-04 23:44:37 
1788  228  140  63  1015  2018-11-05 00:51:31 
1789  231  139  63  1014  2018-11-05 01:58:25 
1790  220  136  63  1014  2018-11-05 03:05:20 
1791  215  130  63  1014  2018-11-05 04:12:14 
1792  213  127  62  1015  2018-11-05 05:19:08 
1793  213  126  62  1015  2018-11-05 06:26:03 
1794  215  136  61  1016  2018-11-05 07:32:57 
1795  208  110  61  1017  2018-11-05 08:39:52 
1796  204  135  61  1017  2018-11-05 09:46:46 
1797  223  137  57  1018  2018-11-05 10:53:41 
1798  214  121  55  1018  2018-11-05 12:00:35 
1799  226  179  54  1018  2018-11-05 13:07:29 
1800  226  183  50  1018  2018-11-05 14:14:24 
1801  234  175  45  1018  2018-11-05 15:21:18 
1802  232  167  41  1018  2018-11-05 16:28:13 
1803  229  150  44  1020  2018-11-05 17:35:08 
1804  222  131  45  1020  2018-11-05 18:42:02 
1805  225  124  47  1021  2018-11-05 19:48:57 
1806  210  122  51  1022  2018-11-05 20:55:51 
1807  213  119  52  1022  2018-11-05 22:02:46 
1808  208  115  54  1023  2018-11-05 23:09:40 
1809  207  119  55  1023  2018-11-06 00:16:35 
1810  201  106  57  1023  2018-11-06 01:23:29 
1811  197  112  57  1024  2018-11-06 02:30:24 
1812  204  125  60  1023  2018-11-06 03:37:18 
1813  191  127  60  1024  2018-11-06 04:44:12 
1814  201  117  61  1024  2018-11-06 05:25:15 
1815  192  121  62  1024  2018-11-06 06:32:10 
1816  193  138  63  1025  2018-11-06 07:39:04 
1817  199  147  61  1025  2018-11-06 08:45:59 
1818  215  168  60  1027  2018-11-06 09:52:53 
1819  214  175  57  1027  2018-11-06 10:59:47 
1820  224  185  55  1028  2018-11-06 12:06:41 
1821  227  197  53  1027  2018-11-06 13:13:36 
1822  230  195  50  1026  2018-11-06 14:20:30 
1823  240  191  46  1027  2018-11-06 15:27:25 
1824  244  200  47  1027  2018-11-06 16:34:20 
1825  230  176  47  1027  2018-11-06 17:41:14 
1826  235  157  52  1028  2018-11-06 18:48:09 
1827  229  151  53  1027  2018-11-06 19:55:04 
1828  224  143  55  1029  2018-11-06 21:01:58 
1829  220  145  55  1030  2018-11-06 22:08:53 
1830  209  142  56  1028  2018-11-06 23:15:47 
1831  203  138  57  1028  2018-11-07 00:22:41 
1832  207  141  57  1026  2018-11-07 01:29:36 
1833  201  137  60  1026  2018-11-07 02:36:30 
1834  210  137  60  1026  2018-11-07 03:43:24 
1835  201  135  61  1025  2018-11-07 04:50:19 
1836  191  134  61  1025  2018-11-07 05:57:13 
1837  202  142  60  1025  2018-11-07 07:04:07 
1838  201  162  57  1026  2018-11-07 08:11:02 
1839  206  185  54  1025  2018-11-07 09:17:57 
1840  223  211  52  1026  2018-11-07 10:24:51 
1841  227  225  50  1025  2018-11-07 11:31:45 
1842  238  236  43  1023  2018-11-07 12:38:40 
1843  261  259  40  1023  2018-11-07 13:45:35 
1844  265  262  34  1022  2018-11-07 14:52:29 
1845  272  242  34  1021  2018-11-07 15:59:24 
1846  274  245  40  1021  2018-11-07 17:06:18 
1847  261  205  44  1021  2018-11-07 18:13:13 
1848  255  190  46  1021  2018-11-07 19:20:08 
1849  247  182  50  1022  2018-11-07 20:27:02 
1850  242  174  50  1022  2018-11-07 21:33:57 
1851  244  165  51  1022  2018-11-07 22:40:52 
1852  230  145  53  1021  2018-11-07 23:47:46 
1853  222  146  54  1020  2018-11-08 00:54:41 
1854  215  137  55  1020  2018-11-08 02:01:35 
1855  219  137  56  1019  2018-11-08 03:08:30 
1856  213  125  57  1019  2018-11-08 04:15:24 
1857  210  122  60  1019  2018-11-08 05:22:18 
1858  212  145  62  1020  2018-11-08 06:29:13 
1859  211  160  63  1021  2018-11-08 07:36:07 
1860  224  171  64  1022  2018-11-08 08:43:01 
1861  231  196  63  1021  2018-11-08 09:49:55 
1862  232  197  64  1023  2018-11-08 10:56:50 
1863  243  211  63  1021  2018-11-08 12:03:44 
1864  247  208  63  1020  2018-11-08 13:10:38 
1865  251  214  61  1021  2018-11-08 14:17:33 
1866  257  217  57  1020  2018-11-08 15:24:27 
1867  254  227  56  1020  2018-11-08 16:31:22 
1868  250  202  56  1021  2018-11-08 17:38:17 
1869  246  184  57  1021  2018-11-08 18:19:20 
1870  238  170  62  1020  2018-11-08 19:26:15 
1871  248  164  63  1021  2018-11-08 20:33:09 
1872  248  163  63  1022  2018-11-08 21:40:04 
1873  244  158  63  1022  2018-11-08 22:46:58 
1874  231  153  63  1021  2018-11-08 23:53:53 
1875  227  154  64  1020  2018-11-09 01:00:47 
1876  223  156  63  1020  2018-11-09 02:07:42 
1877  215  153  63  1019  2018-11-09 03:14:36 
1878  217  151  63  1019  2018-11-09 04:21:30 
1879  217  147  64  1019  2018-11-09 05:28:24 
1880  208  152  65  1020  2018-11-09 06:35:19 
1881  211  166  65  1019  2018-11-09 07:42:13 
1882  214  185  64  1019  2018-11-09 08:49:07 
1883  231  196  63  1018  2018-11-09 09:56:02 
1884  250  243  57  1017  2018-11-09 11:53:49 
1885  271  243  55  1017  2018-11-09 13:00:43 
1886  276  240  54  1016  2018-11-09 14:07:38 
1887  268  247  53  1015  2018-11-09 15:14:33 
1888  278  245  50  1015  2018-11-09 16:21:28 
1889  277  228  51  1015  2018-11-09 17:28:22 
1890  268  210  53  1016  2018-11-09 18:35:17 
1891  269  202  54  1015  2018-11-09 19:42:12 
1892  233  170  61  1014  2018-11-10 02:23:36 
1893  233  165  61  1015  2018-11-10 03:30:30 
1894  226  160  62  1014  2018-11-10 04:37:24 
1895  224  156  62  1014  2018-11-10 05:44:19 
1896  219  158  64  1015  2018-11-10 06:51:13 
1897  226  181  64  1015  2018-11-10 07:58:07 
1898  229  193  64  1015  2018-11-10 09:05:02 
1899  245  204  64  1015  2018-11-10 10:11:56 
1900  260  221  64  1016  2018-11-10 11:18:51 
1901  258  215  63  1016  2018-11-10 12:25:45 
1902  265  225  62  1014  2018-11-10 13:32:40 
1903  261  220  57  1014  2018-11-10 14:39:35 
1904  266  218  55  1014  2018-11-10 15:46:29 
1905  260  221  55  1013  2018-11-10 16:53:24 
1906  256  191  56  1013  2018-11-10 18:00:19 
1907  261  179  60  1013  2018-11-10 19:07:14 
1908  257  169  63  1015  2018-11-10 20:14:08 
1909  241  167  64  1014  2018-11-10 21:21:03 
1910  238  166  64  1014  2018-11-10 22:27:57 
1911  236  166  64  1014  2018-11-10 23:34:52 
1912  234  160  65  1013  2018-11-11 00:41:46 
1913  230  155  65  1012  2018-11-11 01:48:40 
1914  224  148  66  1012  2018-11-11 02:55:35 
1915  220  145  66  1013  2018-11-11 04:02:29 
1916  216  146  67  1012  2018-11-11 05:09:23 
1917  223  171  66  1013  2018-11-11 06:16:17 
1918  224  192  66  1013  2018-11-11 07:23:12 
1919  234  218  65  1013  2018-11-11 08:30:06 
1920  243  241  63  1013  2018-11-11 09:37:01 
1921  255  262  61  1013  2018-11-11 10:43:55 
1922  270  279  60  1013  2018-11-11 11:50:50 
1923  284  290  55  1012  2018-11-11 12:57:44 
1924  302  266  54  1011  2018-11-11 14:04:39 
1925  296  264  51  1011  2018-11-11 15:11:34 
1926  296  265  50  1011  2018-11-11 16:18:29 
1927  294  258  51  1010  2018-11-11 17:25:23 
1928  277  224  53  1010  2018-11-11 18:32:18 
1929  265  210  54  1010  2018-11-11 19:39:13 
1930  262  201  55  1011  2018-11-11 20:46:08 
1931  265  191  57  1012  2018-11-11 21:53:03 
1932  262  182  60  1011  2018-11-11 22:59:57 
1933  252  168  60  1012  2018-11-11 23:41:01 
1934  249  172  61  1011  2018-11-12 00:47:55 
1935  248  164  61  1010  2018-11-12 01:54:50 
1936  245  152  62  1012  2018-11-12 03:01:44 
1937  231  145  63  1012  2018-11-12 04:08:39 
1938  235  139  63  1012  2018-11-12 05:15:34 
1939  227  144  64  1012  2018-11-12 06:22:28 
1940  233  155  65  1013  2018-11-12 07:29:23 
1941  245  183  65  1014  2018-11-12 08:36:17 
1942  251  208  64  1014  2018-11-12 09:43:12 
1943  261  238  62  1013  2018-11-12 10:50:06 
1944  268  268  61  1013  2018-11-12 11:57:01 
1945  277  292  55  1012  2018-11-12 13:03:56 
1946  284  310  53  1012  2018-11-12 14:10:50 
1947  293  262  52  1011  2018-11-12 15:17:45 
1948  294  243  52  1012  2018-11-12 16:24:40 
1949  282  225  52  1011  2018-11-12 17:31:35 
1950  273  205  54  1012  2018-11-12 18:38:30 
1951  277  184  55  1013  2018-11-12 19:45:25 
1952  265  178  57  1013  2018-11-12 20:52:20 
1953  251  174  57  1014  2018-11-12 21:59:14 
1954  255  169  60  1015  2018-11-12 23:06:08 
1955  242  163  61  1014  2018-11-13 00:13:03 
1956  240  168  62  1014  2018-11-13 01:19:57 
1957  245  168  62  1014  2018-11-13 02:26:52 
1958  239  162  63  1014  2018-11-13 03:33:46 
1959  239  159  64  1014  2018-11-13 04:40:41 
1960  237  159  64  1015  2018-11-13 05:47:35 
1961  237  175  65  1016  2018-11-13 06:54:30 
1962  246  197  65  1016  2018-11-13 08:01:24 
1963  242  212  63  1016  2018-11-13 09:08:19 
1964  260  219  60  1017  2018-11-13 10:15:14 
1965  266  241  55  1017  2018-11-13 11:22:08 
1966  274  245  54  1016  2018-11-13 12:29:03 
1967  275  270  53  1016  2018-11-13 13:35:58 
1968  292  285  52  1015  2018-11-13 14:42:53 
1969  293  271  50  1014  2018-11-13 15:49:48 
1970  292  297  50  1014  2018-11-13 16:56:43 
1971  279  246  53  1015  2018-11-13 18:03:38 
1972  270  221  55  1015  2018-11-13 19:10:33 
1973  266  201  57  1016  2018-11-13 20:17:27 
1974  266  200  60  1016  2018-11-13 21:24:22 
1975  262  179  61  1016  2018-11-13 22:31:16 
1976  258  175  62  1016  2018-11-13 23:38:11 
1977  251  181  63  1016  2018-11-14 00:45:05 
1978  252  176  64  1015  2018-11-14 01:52:00 
1979  254  177  65  1014  2018-11-14 02:58:55 
1980  242  178  66  1014  2018-11-14 04:05:49 
1981  243  178  66  1014  2018-11-14 05:12:44 
1982  251  182  66  1014  2018-11-14 06:19:38 
1983  250  193  70  1015  2018-11-14 07:26:33 
1984  249  208  67  1015  2018-11-14 08:33:27 
1985  260  222  65  1016  2018-11-14 09:40:22 
1986  263  234  63  1014  2018-11-14 10:47:17 
1987  267  242  62  1014  2018-11-14 11:54:11 
1988  272  243  61  1015  2018-11-14 12:35:15 
1989  285  257  60  1014  2018-11-14 13:42:09 
1990  285  242  57  1014  2018-11-14 14:49:04 
1991  296  250  56  1013  2018-11-14 15:55:58 
1992  282  241  57  1013  2018-11-14 17:02:53 
1993  255  213  67  1014  2018-11-14 18:09:48 
1994  251  201  71  1015  2018-11-14 19:16:43 
1995  251  195  72  1015  2018-11-14 20:23:37 
1996  238  188  72  1014  2018-11-14 21:30:32 
1997  241  185  72  1014  2018-11-14 22:37:27 
1998  248  181  71  1015  2018-11-14 23:44:21 
1999  241  178  71  1015  2018-11-15 00:51:16 
2000  244  170  71  1014  2018-11-15 01:58:10 
2001  239  173  72  1014  2018-11-15 03:05:05 
2002  235  160  71  1014  2018-11-15 04:11:59 
2003  233  153  71  1015  2018-11-15 05:18:53 
2004  226  165  73  1016  2018-11-15 06:25:48 
2005  240  182  74  1018  2018-11-15 07:32:42 
2006  253  204  74  1017  2018-11-15 08:39:37 
2007  262  219  70  1017  2018-11-15 09:46:31 
2008  269  243  65  1016  2018-11-15 10:53:26 
2009  284  245  61  1016  2018-11-15 12:00:21 
2010  280  251  60  1015  2018-11-15 13:07:15 
2011  291  272  57  1015  2018-11-15 14:14:10 
2012  304  285  53  1015  2018-11-15 15:21:04 
2013  291  313  51  1015  2018-11-15 16:27:59 
2014  283  286  52  1015  2018-11-15 17:34:55 
2015  274  205  53  1016  2018-11-15 18:41:49 
2016  277  201  60  1017  2018-11-15 19:48:44 
2017  275  195  62  1018  2018-11-15 20:55:38 
2018  275  189  62  1019  2018-11-15 22:02:33 
2019  258  189  64  1019  2018-11-15 23:09:28 
2020  259  179  65  1019  2018-11-16 00:16:22 
2021  248  169  65  1018  2018-11-16 01:23:17 
2022  244  168  65  1018  2018-11-16 02:30:11 
2023  241  159  66  1018  2018-11-16 03:37:06 
2024  240  160  66  1017  2018-11-16 04:44:00 
2025  244  156  67  1017  2018-11-16 05:50:55 
2026  240  172  70  1018  2018-11-16 06:57:49 
2027  235  194  70  1019  2018-11-16 08:04:44 
2028  250  228  64  1018  2018-11-16 09:11:38 
2029  251  237  64  1018  2018-11-16 10:18:33 
2030  259  241  63  1018  2018-11-16 11:25:28 
2031  265  245  61  1019  2018-11-16 12:32:23 
2032  269  256  55  1018  2018-11-16 13:39:17 
2033  287  245  52  1018  2018-11-16 14:46:12 
2034  288  249  46  1017  2018-11-16 15:53:07 
2035  275  262  44  1019  2018-11-16 17:00:01 
2036  271  215  47  1020  2018-11-16 18:06:57 
2037  276  190  51  1021  2018-11-16 19:13:52 
2038  269  178  51  1020  2018-11-16 20:20:46 
2039  270  178  53  1021  2018-11-16 21:27:41 
2040  258  181  54  1023  2018-11-16 22:34:36 
2041  253  177  53  1022  2018-11-16 23:41:31 
2042  247  176  54  1021  2018-11-17 00:48:25 
2043  247  175  54  1021  2018-11-17 01:29:29 
2044  248  170  55  1021  2018-11-17 02:36:24 
2045  235  156  56  1021  2018-11-17 03:43:18 
2046  234  149  57  1021  2018-11-17 04:50:13 
2047  228  148  60  1021  2018-11-17 05:57:07 
2048  236  169  61  1021  2018-11-17 07:04:02 
2049  240  182  61  1022  2018-11-17 08:10:56 
2050  283  229  53  1021  2018-11-17 14:52:21 
2051  292  220  47  1020  2018-11-17 15:59:16 
2052  284  251  46  1021  2018-11-17 17:06:10 
2053  273  190  51  1019  2018-11-17 18:13:05 
2054  262  178  52  1019  2018-11-17 19:20:00 
2055  259  174  53  1021  2018-11-17 20:26:54 
2056  260  171  54  1020  2018-11-17 21:33:50 
2057  253  169  54  1020  2018-11-17 22:40:45 
2058  257  167  54  1019  2018-11-17 23:47:39 
2059  245  164  55  1019  2018-11-18 00:54:34 
2060  238  167  56  1018  2018-11-18 02:01:28 
2061  240  163  57  1017  2018-11-18 03:08:23 
2062  236  163  60  1017  2018-11-18 04:15:17 
2063  231  163  61  1017  2018-11-18 05:22:12 
2064  234  168  61  1016  2018-11-18 06:29:06 
2065  237  185  61  1017  2018-11-18 07:36:01 
2066  242  204  60  1017  2018-11-18 08:42:55 
2067  244  222  60  1018  2018-11-18 09:49:50 
2068  265  225  60  1017  2018-11-18 10:56:44 
2069  261  231  57  1016  2018-11-18 12:03:39 
2070  272  239  57  1016  2018-11-18 13:10:33 
2071  283  244  57  1015  2018-11-18 14:17:27 
2072  298  233  54  1013  2018-11-18 15:24:22 
2073  304  248  54  1013  2018-11-18 16:31:16 
2074  282  235  56  1013  2018-11-18 17:38:11 

 

Home